GEFSCGP_500_meanwind_030.txt.gz
Wind_Speed
34 32 31 32 33 35 34 35 37 40 36 34 33 32 31 29 27 27 26 25 24 23 24 24 25 25 26 27 28 28 27 27 28 29 31 34 36 38 39 40 40 39 38 38
34 32 31 32 33 35 35 36 38 41 39 39 39 37 35 33 32 31 30 30 29 28 28 28 28 28 28 29 30 30 30 30 32 33 36 37 40 42 43 43 42 40 37 36
33 32 30 31 32 33 35 36 38 41 42 42 42 40 40 40 38 36 35 34 34 33 32 32 31 30 29 30 31 32 32 33 35 37 38 40 43 45 45 44 41 39 37 33
32 32 30 30 30 32 33 35 37 40 41 42 45 42 39 43 42 41 40 39 38 37 36 35 34 32 30 31 31 32 34 36 37 39 40 42 45 48 48 45 39 36 32 29
30 29 29 29 29 30 32 33 35 38 41 43 45 43 38 44 43 44 45 44 43 42 40 38 35 33 31 31 32 33 35 37 39 40 42 44 46 47 45 43 41 37 34 29
28 28 28 29 30 31 32 33 34 36 39 42 42 42 37 43 43 42 44 44 43 41 39 37 34 33 32 32 33 34 36 38 39 41 43 42 43 44 42 42 38 37 33 29
27 27 28 29 30 31 32 32 32 33 36 35 37 38 34 42 39 38 39 39 38 37 35 34 33 32 32 32 33 34 36 38 39 40 40 40 41 40 40 39 38 37 34 32
23 23 26 27 28 29 30 31 31 26 24 25 33 32 36 36 34 33 33 32 31 30 29 29 28 28 28 29 30 31 33 35 37 38 38 39 39 39 39 39 39 37 36 35
18 19 23 25 27 28 30 30 30 30 27 24 22 30 34 32 30 29 28 27 26 26 25 24 24 25 26 27 29 31 33 34 36 37 38 38 38 38 40 40 39 39 38 37
16 16 19 22 25 27 28 28 30 31 27 24 23 26 27 29 27 26 26 26 25 24 23 23 23 24 26 28 29 31 33 34 35 36 37 38 39 39 40 41 40 40 39 39
15 15 16 19 21 23 26 28 30 29 27 24 20 21 26 26 25 25 25 24 24 24 24 25 25 26 28 29 31 32 34 35 36 37 38 39 40 41 41 42 42 42 42 43
14 14 15 19 21 23 25 26 28 29 28 28 24 24 25 24 24 23 24 24 24 24 25 26 28 29 30 32 33 35 36 37 39 40 41 42 43 44 44 45 45 46 46 47
14 15 15 16 20 23 25 27 30 31 29 27 24 28 29 27 26 26 26 27 27 27 28 29 31 32 33 35 36 37 39 40 41 42 43 44 45 47 48 49 49 49 50 51
16 17 18 18 19 22 24 26 28 29 27 27 28 31 31 30 30 30 31 31 32 32 33 34 36 36 37 39 40 41 42 43 44 45 45 46 47 49 50 51 51 52 53 53
18 21 22 23 25 25 25 26 27 30 32 30 32 34 35 34 34 34 35 36 37 37 38 39 40 40 41 42 43 44 46 46 46 46 47 48 48 49 51 52 53 53 54 54
18 20 23 25 26 27 27 28 28 30 32 33 35 37 38 37 37 37 38 38 40 41 41 41 41 42 43 44 44 45 44 44 44 45 46 48 49 51 52 53 54 55 55 55
15 17 20 24 26 27 29 31 31 31 32 33 35 37 38 39 39 39 40 40 41 42 42 42 42 42 42 42 42 41 41 42 44 46 48 50 51 52 54 54 54 54 53 53
13 15 17 20 22 25 29 29 30 31 33 34 36 37 38 38 39 39 39 39 40 40 40 39 38 39 40 40 40 41 43 44 47 49 50 51 52 52 52 52 51 51 52 52
12 13 14 16 18 22 25 25 26 28 30 32 33 34 35 36 37 38 38 38 37 36 36 36 37 38 39 39 40 42 44 46 48 49 50 50 50 50 50 50 50 50 51 51
12 12 12 13 14 19 21 21 22 23 27 27 28 29 30 31 33 33 33 33 32 32 34 35 36 37 39 40 42 44 45 46 47 48 48 48 48 48 49 49 49 49 49 49
11 11 11 12 13 15 15 16 17 21 23 23 24 26 27 28 29 29 29 30 31 32 34 36 38 39 40 41 42 43 44 45 45 45 45 46 46 46 46 46 46 47 47 47
11 11 10 11 12 13 12 12 15 18 19 20 21 23 24 25 26 27 28 29 31 32 34 35 37 38 39 40 41 41 41 42 42 42 42 42 42 43 43 44 45 45 45 45
11 10 10 10 11 11 12 12 14 16 18 19 21 22 23 24 25 27 28 29 30 31 33 34 35 36 37 37 38 38 38 38 38 38 38 39 40 41 41 42 42 42 42 42
11 10 10 10 10 11 12 12 13 14 16 18 20 22 23 24 25 26 26 27 29 30 30 31 32 32 32 33 33 33 33 34 34 35 36 37 37 38 38 39 39 38 37 36
11 10 10 10 11 11 11 12 13 15 16 18 19 21 21 23 23 24 24 25 25 26 27 27 27 27 27 28 28 29 30 31 32 33 34 34 35 35 35 34 33 32 31 29
11 10 10 10 10 11 12 12 13 14 15 16 17 18 19 20 20 20 20 21 21 21 22 21 22 22 23 24 26 27 28 29 31 31 32 32 32 31 29 28 27 26 24 22

GEFSCGP_500_meanwind_036.txt.gz
Wind_Speed
37 38 37 35 32 28 22 16 16 14 15 18 18 21 20 19 20 21 21 20 19 19 21 23 23 24 23 21 20 22 25 27 28 29 30 32 32 32 33 35 37 38 39 37
37 37 36 35 32 30 30 26 21 16 17 22 22 24 24 21 20 23 23 23 23 23 24 24 25 26 27 25 24 24 27 29 31 32 33 33 33 34 35 37 38 39 39 37
34 32 34 34 32 32 33 30 25 20 22 29 29 27 28 27 26 26 27 28 28 28 27 26 27 29 30 29 27 27 29 32 34 35 34 34 35 35 36 38 40 40 38 36
30 29 29 33 33 33 34 32 30 29 28 28 31 29 28 29 30 30 30 32 32 30 29 29 31 32 32 32 32 31 32 34 35 36 35 36 37 37 37 39 40 41 39 37
27 28 29 31 32 32 30 30 31 33 34 32 31 29 24 25 29 30 33 35 34 32 33 33 33 34 35 35 36 35 34 35 36 36 36 37 38 38 39 40 41 41 40 38
22 25 27 29 30 30 28 26 26 31 34 36 33 31 24 23 27 32 37 38 36 34 34 34 35 36 37 38 38 38 36 36 36 37 37 38 39 40 41 42 42 41 39 38
24 24 26 28 27 27 28 27 25 27 32 33 28 30 29 30 32 35 39 40 38 36 36 36 37 38 38 38 38 37 37 36 37 37 38 39 40 41 42 42 42 40 39 38
17 20 23 26 27 24 25 27 26 19 14 14 17 21 25 34 37 38 39 42 43 42 41 40 38 37 36 35 35 36 36 36 36 37 38 40 41 42 42 42 41 41 40 40
11 11 16 20 23 25 22 24 23 23 21 17 13 22 31 32 34 37 41 45 46 46 44 41 37 34 33 32 33 34 35 36 37 38 39 40 41 41 42 42 43 43 43 42
15 12 12 15 20 22 23 19 20 25 24 20 14 21 30 31 31 31 34 38 41 41 40 37 34 31 31 31 32 33 34 36 37 38 39 41 41 43 44 45 45 45 45 45
15 14 12 13 15 18 21 22 22 23 23 22 19 21 26 29 29 30 31 30 30 31 32 31 30 30 30 31 32 33 35 36 38 39 41 42 43 45 46 46 47 47 48 48
16 16 15 14 14 14 17 20 22 24 24 23 23 25 30 30 30 30 30 28 27 28 29 30 30 31 31 32 33 34 36 37 39 40 42 43 44 45 46 47 49 50 50 51
14 14 15 14 15 18 19 19 22 24 25 26 24 27 31 31 32 33 32 30 29 29 30 31 32 32 33 34 35 36 38 39 41 42 43 44 46 47 48 49 51 52 53 53
12 14 16 16 17 20 23 23 23 24 25 26 27 30 32 31 32 34 34 31 31 31 32 33 34 35 36 38 39 40 42 43 44 45 46 47 48 49 51 52 53 54 54 54
11 14 17 17 17 15 17 23 24 25 27 26 28 32 35 36 35 35 35 35 34 34 34 35 37 39 40 41 42 43 45 46 47 48 49 51 52 52 53 53 54 54 54 55
10 13 16 17 16 16 16 18 21 21 22 26 29 33 34 35 35 33 32 31 31 31 34 37 39 41 42 43 45 46 47 48 49 50 51 52 52 52 53 53 53 54 55 55
8 10 13 16 18 19 20 23 24 26 27 28 31 34 36 37 38 36 34 32 31 33 36 38 40 42 43 44 45 47 48 49 49 49 49 49 49 50 51 51 51 52 54 55
8 9 10 12 16 20 25 27 26 28 30 30 33 36 42 44 43 41 39 37 36 37 37 37 38 40 40 41 41 42 43 42 43 44 44 45 47 48 49 50 51 52 53 54
10 9 9 10 11 18 24 26 27 27 29 29 30 32 35 38 39 40 40 39 39 38 37 36 34 34 36 38 39 40 40 40 41 42 43 44 46 48 49 50 51 51 52 53
12 10 10 11 14 18 21 22 23 24 29 30 30 30 32 34 34 34 34 34 35 36 36 36 36 36 37 37 38 40 40 40 41 42 43 44 45 47 48 48 49 49 50 50
13 12 12 13 15 18 19 20 21 22 24 25 25 26 27 29 30 29 29 29 29 30 31 32 34 35 36 37 37 38 40 40 41 42 43 43 44 44 45 46 47 47 47 47
14 14 14 14 15 16 16 17 18 19 20 21 22 22 23 24 24 25 26 27 28 29 31 32 33 34 35 35 36 37 38 39 40 40 41 41 41 42 42 43 43 44 44 43
15 14 15 15 15 15 15 15 16 17 18 19 19 20 20 20 21 23 24 25 27 28 28 29 30 31 32 33 34 35 36 36 37 37 38 38 39 40 40 40 40 40 40 40
17 15 15 15 15 13 13 14 15 15 16 16 18 19 20 20 20 21 23 24 24 24 25 26 27 29 30 31 32 33 34 34 35 36 37 37 37 37 37 37 37 36 35 34
17 16 15 15 15 14 12 12 13 14 15 15 16 17 18 19 19 20 20 20 21 22 23 24 25 26 27 29 30 31 32 33 34 34 35 34 34 33 32 32 31 30 29 27
17 16 15 14 14 13 13 12 12 13 13 14 14 15 15 16 17 18 18 18 19 20 21 22 23 25 26 28 29 30 30 31 31 30 30 29 28 27 27 25 24 23 22 21

GEFSCGP_500_meanwind_042.txt.gz
Wind_Speed
28 30 32 33 34 33 30 29 25 23 23 21 20 21 24 28 29 30 30 28 26 25 24 23 22 20 20 19 16 14 14 17 18 20 20 20 21 22 23 23 23 23 23 22
27 27 29 32 33 33 31 28 25 24 23 21 22 25 26 27 28 27 27 27 26 26 25 24 22 20 19 17 16 17 17 20 21 22 24 25 26 26 27 27 28 27 26 25
25 25 28 31 33 33 32 29 26 25 24 23 26 28 29 28 28 27 26 26 27 26 26 26 25 22 20 20 19 19 21 22 24 26 28 28 29 29 29 30 30 30 29 28
23 25 28 30 31 31 31 29 28 27 25 25 29 29 29 28 28 28 26 27 28 28 27 27 27 25 23 23 24 24 26 27 30 30 29 30 31 32 32 31 31 32 32 30
20 23 25 27 29 30 30 31 30 29 28 28 29 30 30 30 30 30 28 27 27 28 29 29 28 28 28 28 28 29 30 32 33 33 34 35 35 35 34 34 35 34 33 32
21 23 24 25 27 29 31 32 32 31 31 30 30 31 31 33 33 32 31 30 29 29 29 30 30 31 31 31 32 33 35 35 36 38 39 38 38 37 37 37 36 35 34 33
20 22 23 25 27 29 31 33 33 34 34 32 30 31 30 30 31 34 35 34 34 33 33 33 34 33 34 35 36 37 38 39 40 41 41 40 39 38 37 37 35 35 35 34
18 19 21 24 25 27 28 32 33 36 37 35 33 33 32 29 30 33 35 37 37 36 35 35 35 36 37 38 40 40 42 43 44 43 42 41 40 39 38 37 37 36 36 35
16 17 18 19 20 22 23 26 29 33 35 35 36 37 36 33 32 33 35 37 38 38 37 36 37 38 40 41 43 44 45 46 45 44 43 42 41 39 38 37 37 37 37 37
15 15 17 17 18 19 21 22 26 29 31 32 35 37 37 33 31 32 33 35 37 39 39 39 39 39 42 44 45 47 47 47 46 44 43 42 40 40 40 40 40 40 41 41
14 16 17 17 16 17 20 24 26 27 29 31 33 35 36 32 31 32 33 34 35 37 38 39 40 42 43 45 46 47 46 46 45 44 43 42 41 42 42 43 44 44 45 45
14 16 19 19 19 18 20 23 25 28 29 31 35 38 37 33 28 28 31 33 35 38 39 40 42 44 45 45 45 45 45 44 44 43 43 43 44 44 45 46 47 47 48 49
14 16 18 19 20 20 22 25 26 27 28 31 35 40 40 37 33 30 29 31 34 36 39 41 43 45 46 46 45 44 43 43 44 44 45 46 47 48 48 49 50 52 53 54
12 15 17 20 21 22 23 24 26 27 29 31 35 39 40 40 39 37 34 33 35 36 38 40 41 42 43 44 45 44 44 45 45 46 47 49 50 51 52 53 55 56 57 58
9 13 16 19 20 22 24 23 25 28 30 32 34 38 41 42 43 41 38 36 34 32 33 37 38 38 39 40 41 42 44 46 46 47 48 50 52 53 54 55 56 57 58 60
7 10 12 16 18 20 22 23 23 26 29 31 34 36 38 38 40 40 39 35 34 33 33 33 33 35 37 37 39 41 43 45 46 47 48 50 52 53 54 56 56 56 56 56
3 6 9 13 16 17 20 21 23 23 26 28 29 32 34 34 33 34 34 35 34 33 32 32 32 33 34 36 37 37 37 38 41 44 46 47 49 51 52 52 52 52 52 52
4 4 7 10 12 15 16 16 18 21 22 22 24 26 27 28 28 29 30 31 32 32 32 32 32 32 33 34 34 35 37 38 38 40 42 44 46 48 48 49 49 49 49 49
7 6 6 8 10 11 13 15 16 19 20 20 21 22 24 26 27 27 27 28 28 28 28 29 29 29 30 31 33 34 36 37 39 40 41 42 43 45 45 45 46 47 47 47
11 9 8 8 9 9 11 13 15 16 18 18 19 20 21 21 22 23 23 24 25 25 26 27 27 28 29 31 32 34 35 36 36 37 38 39 40 41 42 43 44 44 45 45
13 12 10 9 8 8 9 11 13 15 16 16 17 17 17 18 19 19 20 21 22 22 23 24 25 26 28 29 30 31 32 33 34 34 35 36 37 38 39 40 41 42 42 43
14 13 12 11 9 8 9 10 12 13 13 14 14 14 14 14 15 15 16 17 18 19 20 22 23 24 25 27 27 28 29 30 30 31 32 34 35 36 36 37 38 38 38 38
15 14 13 11 10 9 9 9 10 11 11 11 12 12 12 12 13 14 14 15 16 18 19 20 21 22 23 24 25 26 27 27 28 29 30 31 31 32 32 33 33 33 33 32
16 15 14 12 11 10 9 9 9 10 9 9 10 10 11 11 12 13 13 14 15 16 17 18 20 20 22 23 23 24 24 24 25 25 26 27 27 28 28 28 27 27 27 26
18 17 15 13 12 11 10 9 9 8 9 9 9 9 10 10 11 12 12 13 14 15 16 17 18 19 20 20 20 21 21 21 22 23 24 24 24 24 24 23 22 21 20 20
19 18 17 14 13 12 11 10 9 8 8 8 9 9 9 9 10 11 12 12 13 14 15 16 17 17 18 18 18 18 19 19 20 21 21 20 20 20 20 19 19 18 17 16

GEFSCGP_500_meanwind_048.txt.gz
Wind_Speed
22 24 24 25 28 30 32 31 29 28 28 28 28 29 34 37 37 37 36 33 30 26 24 22 21 20 20 19 20 22 23 22 22 22 21 21 21 21 21 22 22 23 24 24
21 22 23 25 27 29 30 29 28 27 27 27 27 28 31 35 35 35 35 34 31 29 26 24 22 20 20 20 20 23 24 25 25 24 23 23 24 25 25 25 25 25 25 26
21 22 24 26 27 28 29 28 28 27 27 26 26 27 30 33 34 34 34 35 33 31 28 25 23 21 20 21 20 20 21 23 24 24 26 27 28 29 30 26 26 26 26 26
20 23 25 26 26 27 27 27 28 28 28 26 26 27 28 30 30 31 32 32 33 32 31 28 25 24 22 21 21 22 22 22 24 26 27 29 31 30 29 29 28 27 28 29
20 23 25 25 25 26 26 28 28 29 28 27 26 27 28 28 28 28 30 31 32 32 32 30 28 26 25 23 23 23 23 24 26 27 30 31 33 33 30 30 29 29 30 31
19 22 23 23 24 26 27 29 30 30 29 29 28 27 29 29 29 29 30 31 31 31 31 31 29 27 27 26 25 25 26 28 30 31 33 35 35 34 33 32 31 31 31 31
17 18 20 22 24 25 27 29 30 31 31 30 29 30 31 31 31 31 31 31 32 31 31 32 32 31 30 29 29 29 30 31 32 34 36 37 38 36 35 34 34 33 31 32
14 14 17 20 22 23 26 28 30 31 32 32 31 32 33 32 32 32 32 32 32 32 32 32 32 32 32 32 33 34 34 35 36 38 38 38 37 38 37 35 35 34 35 34
14 14 16 19 21 23 25 27 28 29 30 30 32 33 33 33 34 34 34 33 33 34 34 35 36 36 36 37 37 38 38 39 40 40 39 40 39 38 38 38 37 37 36 36
14 15 17 19 21 23 24 25 27 29 28 29 32 33 34 34 34 35 36 36 36 36 36 37 38 38 39 40 42 42 43 42 41 41 42 43 43 43 42 42 41 39 38 39
14 15 17 19 21 22 24 25 27 28 29 30 31 33 33 34 35 36 37 38 39 39 39 39 39 41 42 42 43 44 44 44 45 45 45 45 45 45 44 44 42 41 42 43
14 15 16 19 20 21 22 24 26 27 28 29 31 34 35 35 36 37 38 39 40 40 40 40 41 41 41 42 43 44 45 46 46 47 47 47 47 46 45 44 44 44 46 46
12 13 15 17 19 20 21 22 24 26 27 29 30 33 33 35 35 36 37 39 39 39 40 39 39 40 41 41 41 42 43 44 45 45 45 45 45 45 45 45 46 47 48 49
9 10 12 15 17 18 19 20 22 23 26 27 29 31 32 33 34 36 37 37 38 39 40 40 39 38 39 38 38 38 39 40 40 41 42 42 42 43 44 45 46 48 49 51
6 8 11 14 16 18 19 21 22 23 25 27 28 30 31 32 33 35 36 37 38 38 39 40 40 39 38 38 37 37 39 39 38 38 40 42 42 43 44 46 47 49 50 51
3 6 8 12 15 17 19 20 22 23 24 26 28 29 30 32 33 33 34 34 36 37 38 38 38 37 36 35 35 36 37 37 38 39 39 39 41 43 44 45 46 47 48 50
4 5 6 9 12 14 18 19 21 22 23 24 26 26 27 28 29 29 30 31 31 32 32 33 33 33 32 31 31 31 32 32 33 34 34 36 37 38 40 42 44 46 48 50
6 5 5 6 9 11 13 15 17 19 22 23 24 25 25 25 25 24 25 26 27 27 28 28 28 27 27 29 29 29 28 29 30 32 33 35 36 38 40 42 44 46 47 49
8 7 7 7 7 9 9 11 13 16 18 20 21 22 22 22 22 21 21 22 22 22 22 22 23 23 24 25 26 27 28 29 30 32 34 36 37 39 40 42 43 45 46 48
9 9 8 8 7 8 9 10 12 14 15 16 16 17 17 18 18 18 17 17 18 19 19 20 21 22 22 23 24 26 27 28 29 31 32 34 35 36 38 39 41 42 44 45
12 12 11 10 9 8 8 9 10 11 12 12 12 13 13 13 13 13 14 14 15 16 17 18 18 19 20 21 23 24 25 26 27 29 30 32 33 34 35 36 38 39 40 41
13 14 13 12 11 10 10 9 9 9 9 9 9 10 11 11 11 11 12 13 13 14 15 16 17 18 19 20 22 23 23 25 26 27 28 29 30 31 33 34 35 35 35 36
14 14 14 13 12 11 11 10 9 8 8 7 7 7 8 8 9 10 11 12 13 13 13 14 15 17 18 20 21 21 22 22 23 24 25 26 28 29 30 30 30 31 31 31
15 15 15 14 13 12 12 11 9 8 7 7 6 7 7 8 9 9 10 10 11 12 12 14 15 16 18 19 19 19 19 19 20 22 23 24 25 26 27 27 27 27 27 26
15 16 15 15 14 13 12 11 9 9 8 7 7 7 7 7 6 7 8 8 9 10 11 12 14 15 16 17 17 17 17 18 19 20 21 21 23 23 23 23 23 23 21 21
16 16 16 15 15 14 13 11 10 8 7 7 6 6 5 5 5 6 7 8 9 10 11 13 14 15 15 16 16 16 16 17 18 18 19 20 20 20 20 20 20 19 18 18

GEFSCGP_500_meanwind_054.txt.gz
Wind_Speed
15 17 20 22 24 26 27 28 29 31 30 30 30 30 29 28 30 33 35 35 34 33 30 28 28 27 25 25 23 24 25 25 24 23 23 23 23 24 25 25 26 28 29 30
13 16 20 21 23 24 25 26 26 28 29 29 29 28 28 28 29 31 33 35 34 33 31 29 29 28 27 26 26 26 27 27 27 28 28 27 27 27 28 30 31 32 32 33
13 16 19 20 22 23 24 25 26 27 28 27 27 26 26 27 27 29 31 33 33 33 32 31 31 30 29 28 28 27 28 29 30 30 32 31 30 31 32 33 35 37 37 34
13 15 18 20 21 22 21 24 26 27 25 23 24 20 25 26 27 27 28 30 32 33 33 33 33 32 31 30 29 28 28 29 30 31 32 33 33 34 34 35 35 37 37 33
12 14 17 19 20 21 22 24 25 26 26 23 23 20 23 25 26 26 26 27 29 32 34 35 35 35 34 32 31 30 30 31 32 31 31 32 32 33 34 35 35 34 33 32
11 12 15 17 19 20 22 24 25 25 23 22 23 21 23 25 25 24 24 25 26 28 31 33 36 36 34 33 32 31 32 31 32 32 33 33 32 33 33 35 35 34 34 34
8 10 12 16 17 19 21 22 21 20 21 21 24 23 23 23 23 23 23 23 23 25 27 29 32 34 35 35 34 33 32 32 32 33 33 34 34 35 37 38 39 38 38 37
5 7 11 14 16 18 20 22 18 15 17 20 25 25 25 22 21 22 22 22 22 24 26 27 29 32 34 34 34 34 34 33 33 36 36 36 38 39 40 41 42 42 42 40
7 7 11 13 16 18 19 21 20 19 18 18 23 26 25 24 23 22 23 23 23 25 26 28 29 30 32 33 34 34 35 35 36 37 38 39 40 41 43 44 45 46 45 43
9 9 10 12 15 17 19 20 21 18 15 16 21 24 24 24 24 23 23 24 25 26 28 29 30 31 33 34 34 35 36 37 38 39 41 42 43 45 45 46 47 48 47 47
9 9 9 11 13 14 17 19 20 18 17 14 17 23 23 24 25 25 25 26 27 28 30 31 32 33 34 35 36 37 39 40 41 42 43 44 45 45 47 47 48 47 47 48
8 8 8 10 12 14 16 17 18 17 19 19 15 21 22 23 24 25 26 27 29 30 31 32 33 35 36 37 38 39 40 41 42 43 43 44 45 46 45 46 46 47 47 46
6 7 7 7 10 13 15 16 17 18 18 18 18 22 22 23 25 26 28 29 31 32 34 35 36 37 39 39 40 41 42 43 43 44 45 45 45 45 45 45 46 46 45 45
5 7 9 10 12 13 14 15 16 16 16 18 21 24 24 25 27 28 29 31 32 33 35 36 37 38 39 40 40 41 42 43 43 42 42 42 42 44 43 43 43 44 45 45
4 6 8 10 11 13 14 16 17 18 19 21 23 24 25 26 28 29 29 30 31 32 33 34 35 35 36 38 38 39 39 40 40 40 41 41 41 41 42 43 44 44 45 45
2 3 5 8 10 13 15 16 18 19 20 22 23 24 24 25 26 27 27 29 30 30 30 32 32 33 33 34 35 36 36 37 37 37 38 39 39 40 41 42 42 43 44 45
2 0 3 6 8 10 14 15 17 19 20 22 23 23 24 24 24 25 26 27 27 29 30 29 29 28 29 29 30 30 31 32 33 34 35 37 37 38 39 40 41 42 43 44
5 3 2 3 5 8 10 12 14 16 18 19 21 22 22 22 22 23 24 25 25 25 25 25 25 25 26 27 27 28 29 30 31 31 32 34 35 36 37 37 38 39 41 42
7 6 4 3 4 6 8 9 11 13 15 16 17 18 18 19 19 20 20 21 22 22 22 23 23 23 24 24 25 25 26 27 28 28 29 31 32 33 34 35 36 37 39 40
9 8 6 4 4 5 6 7 9 11 12 13 14 15 15 16 17 17 18 19 20 20 20 21 21 22 22 23 23 24 25 25 26 26 28 29 30 30 31 32 33 34 35 36
9 9 8 7 5 5 6 7 8 8 10 11 12 12 12 13 14 14 15 16 17 17 18 19 20 20 20 21 21 21 22 23 24 24 25 26 26 27 27 28 30 31 32 33
10 10 9 8 7 6 6 6 7 8 8 8 8 8 10 11 11 11 12 13 14 15 16 17 18 18 18 19 19 20 21 21 22 22 23 23 23 24 25 26 27 28 29 29
10 10 10 9 9 8 7 7 7 7 6 6 5 6 6 7 8 9 10 11 12 13 14 15 15 16 17 18 18 19 19 20 20 20 20 21 21 22 23 23 24 25 25 24
10 10 11 11 10 10 9 9 8 8 6 5 5 5 5 6 6 7 8 9 10 11 12 13 14 15 16 17 17 18 19 19 18 18 19 19 19 19 20 21 21 22 21 21
11 11 12 12 12 11 10 10 9 8 6 5 5 5 5 5 5 6 6 7 8 9 10 11 13 14 15 16 17 17 17 17 17 17 18 17 17 18 18 18 19 19 18 17
11 12 12 12 13 12 11 10 10 8 7 6 6 6 5 5 5 5 6 6 8 9 10 11 13 14 15 16 16 16 15 15 15 16 15 16 16 16 16 16 16 16 15 14

GEFSCGP_500_meanwind_060.txt.gz
Wind_Speed
11 12 12 10 12 14 13 13 13 14 18 20 23 26 26 27 29 29 29 29 30 32 32 31 31 29 28 26 24 22 21 20 20 20 21 21 22 23 23 24 25 25 26 27
7 7 8 10 12 16 17 15 13 16 19 19 21 24 27 29 29 29 28 30 31 32 31 30 31 31 30 27 25 24 22 21 22 22 23 24 25 26 27 28 29 29 30 30
8 8 9 12 14 17 19 18 15 15 16 18 21 23 26 28 29 28 27 29 31 33 32 32 32 31 29 28 26 26 24 24 25 25 25 26 27 28 30 32 33 33 33 33
10 11 12 14 15 16 16 16 17 16 16 17 19 20 24 25 28 30 30 29 31 30 29 28 29 29 29 29 28 28 27 27 27 27 27 28 29 30 31 33 35 36 35 35
9 11 13 13 12 14 12 12 16 16 18 19 18 19 23 24 27 30 31 31 29 29 28 28 29 30 31 30 30 29 29 29 29 30 29 30 30 31 33 34 33 34 35 35
9 11 11 12 13 14 14 13 14 15 17 20 20 21 24 24 26 28 29 29 28 27 27 27 29 30 31 32 32 32 31 31 31 33 32 32 33 34 35 35 35 34 35 35
6 8 10 12 13 16 16 15 12 12 16 18 17 22 28 27 24 25 26 27 28 27 27 27 29 30 32 33 32 32 32 32 33 34 34 34 34 35 35 35 35 35 35 35
7 9 10 11 14 14 16 18 16 12 13 13 17 26 29 26 21 22 22 24 26 27 26 27 28 30 32 32 33 34 35 35 36 37 37 36 35 36 37 36 36 37 36 35
7 8 8 9 12 14 14 19 17 16 16 16 24 30 29 27 24 21 22 23 24 25 25 25 26 27 29 31 34 35 36 37 37 38 39 38 38 38 38 38 38 39 38 38
5 5 7 9 11 14 15 16 15 14 13 16 22 27 27 24 24 23 23 23 24 25 25 25 25 26 28 30 32 32 34 35 36 38 39 38 38 39 40 40 41 41 41 40
6 5 8 9 11 13 17 19 18 15 14 14 16 21 26 26 24 24 25 25 25 25 25 26 27 27 28 29 30 31 33 34 36 37 37 37 39 41 42 42 43 42 41 42
8 6 8 9 11 12 14 17 19 18 17 14 16 19 18 21 22 23 23 25 26 26 26 27 28 29 30 31 32 33 33 34 36 36 37 38 40 41 42 43 43 43 44 44
7 7 6 9 11 14 14 16 19 22 20 17 18 21 15 12 15 17 19 22 25 26 27 27 28 29 31 32 33 34 35 35 36 38 38 39 41 42 43 43 44 44 45 45
6 8 7 9 10 13 15 14 17 20 20 19 23 24 22 18 16 16 18 20 23 25 27 29 30 31 32 34 35 35 36 37 38 39 40 41 42 43 43 44 44 45 46 46
4 4 4 4 8 11 11 13 16 19 23 25 24 22 19 18 18 18 20 22 24 26 27 28 30 31 32 34 35 36 37 38 39 40 41 41 42 43 43 43 44 44 44 45
3 1 1 1 4 8 9 13 16 17 21 25 26 25 24 22 20 20 20 22 24 26 27 28 30 31 32 33 35 36 37 38 38 39 40 40 41 41 41 41 42 42 42 43
2 2 0 1 4 7 8 11 14 16 19 22 24 26 27 26 25 23 23 23 24 26 27 28 30 31 32 33 34 35 35 35 35 36 36 37 37 38 38 38 38 39 39 39
3 2 2 1 4 6 8 10 13 16 19 21 23 25 25 24 24 24 22 23 23 24 25 26 27 28 28 29 30 30 31 32 32 33 34 34 34 35 35 35 36 36 36 37
6 4 3 2 4 7 8 10 12 14 16 18 20 22 23 22 22 22 22 22 23 22 22 23 23 24 25 26 27 27 28 28 29 30 30 30 30 30 31 31 31 32 33 34
7 6 4 3 5 8 9 10 12 14 14 15 17 18 19 19 19 19 19 20 21 21 22 23 24 24 24 25 25 25 25 25 26 26 27 27 27 27 27 28 29 30 30 31
7 7 6 6 6 7 9 10 11 12 13 14 14 15 15 15 16 16 16 17 18 18 19 20 20 21 21 21 22 22 23 23 23 23 24 24 24 24 25 26 26 26 27 27
8 8 8 8 8 9 10 11 11 12 11 11 12 12 11 12 12 12 13 14 15 15 16 16 17 18 18 19 20 20 21 21 20 20 21 21 21 22 22 23 23 23 24 24
8 9 9 9 9 10 10 11 11 11 11 10 10 9 9 9 9 10 11 12 12 13 14 14 14 15 16 16 17 17 18 18 19 19 19 19 20 20 20 21 21 21 21 21
8 9 10 10 11 11 11 12 12 12 11 10 9 8 8 8 8 8 8 9 10 11 11 12 12 12 13 14 15 16 17 17 18 18 18 18 18 18 18 18 18 18 18 18
8 9 10 11 12 13 13 13 12 12 11 11 10 9 8 7 7 7 8 9 9 10 11 11 11 11 12 14 15 16 17 17 17 17 17 16 16 16 17 17 16 16 16 16
8 10 11 13 14 14 14 14 13 12 12 11 10 9 9 8 9 9 9 9 10 9 10 10 11 11 13 15 16 16 17 16 16 16 15 15 15 15 15 15 14 14 14 14

GEFSCGP_500_meanwind_066.txt.gz
Wind_Speed
14 14 14 14 14 14 15 16 15 16 17 19 21 22 25 30 34 37 38 38 38 36 33 31 30 29 29 27 26 26 26 24 22 21 20 20 19 19 19 19 19 19 20 20
11 12 11 13 13 13 14 15 14 15 16 16 18 20 24 27 31 34 35 37 38 36 34 33 32 31 30 28 27 26 26 25 24 23 23 23 22 22 21 21 21 22 23 23
11 11 12 13 13 13 14 14 13 14 16 16 17 19 22 25 27 30 33 34 35 35 34 33 32 32 31 29 28 29 28 26 26 24 24 24 24 24 23 22 22 23 23 23
12 12 12 12 13 14 16 16 14 14 16 17 17 18 21 23 25 29 31 32 33 33 33 33 31 31 30 30 29 29 28 27 28 26 25 26 24 25 25 24 22 22 22 22
11 12 13 12 12 15 16 17 17 16 15 18 18 19 20 22 24 26 28 30 31 31 31 30 31 30 31 31 30 28 27 28 27 28 27 27 25 25 26 24 22 22 21 21
11 11 12 11 12 14 15 17 17 17 18 18 18 20 21 22 23 24 26 28 30 31 31 30 30 30 28 29 29 29 29 29 28 28 28 28 27 27 25 23 23 22 21 20
11 11 11 12 12 14 16 16 17 18 19 18 18 21 22 22 22 22 24 24 27 30 31 31 31 29 29 29 28 28 29 30 29 29 29 29 28 27 26 25 24 23 23 24
11 10 11 10 11 14 18 18 17 15 16 18 19 21 22 21 20 20 21 23 25 28 30 30 30 30 30 30 30 30 30 29 29 30 28 28 27 27 28 28 27 26 26 28
12 9 9 10 9 14 18 19 17 16 16 18 19 21 22 21 20 20 21 22 23 25 28 30 30 30 29 29 30 30 30 28 28 28 29 29 29 28 28 28 28 29 29 30
9 6 6 7 9 12 17 18 18 18 17 17 19 19 19 20 21 20 21 22 24 24 26 27 28 27 27 28 28 28 27 27 27 27 28 27 27 28 28 28 29 30 31 33
8 6 5 7 8 11 17 19 20 19 17 16 16 18 20 19 20 21 21 23 24 25 25 26 27 26 27 27 27 27 27 27 28 28 28 28 29 29 29 30 31 32 33 33
7 6 4 7 9 12 16 18 19 19 16 14 15 16 16 17 18 20 22 23 24 24 25 26 26 26 26 27 27 28 28 29 29 30 30 30 31 31 32 33 34 35 35 36
5 4 4 8 11 12 14 16 18 18 17 16 16 16 14 12 13 16 18 18 21 23 23 24 24 25 26 27 27 28 28 29 30 30 31 32 32 33 34 34 35 37 37 38
3 3 6 8 11 12 14 15 17 18 19 19 18 18 17 18 14 12 12 15 17 19 21 22 24 25 27 28 29 29 29 30 31 32 33 33 34 35 36 37 37 38 39 39
2 3 6 8 11 12 14 16 16 17 18 20 20 20 19 18 17 13 10 11 13 15 18 21 23 25 27 28 29 30 31 32 32 33 34 34 35 35 36 36 37 37 38 39
2 3 5 7 9 10 12 13 14 15 16 18 19 20 18 17 16 16 15 15 15 16 18 21 23 25 27 28 29 30 31 32 33 33 34 34 35 35 35 36 36 36 36 37
0 1 3 5 6 7 10 10 11 13 15 16 18 18 18 17 17 17 17 17 18 19 20 22 24 25 26 26 28 28 29 30 31 31 32 32 33 32 33 33 33 33 34 34
2 1 1 2 4 4 4 6 8 10 12 13 15 16 16 17 17 17 18 18 18 18 19 20 22 22 23 24 24 25 27 28 28 28 29 29 30 30 31 31 31 31 31 31
4 4 3 2 1 1 3 5 8 9 11 12 14 15 15 15 16 16 16 16 17 17 18 19 20 20 21 22 23 25 25 25 26 26 26 27 27 28 28 28 28 28 27 27
6 5 5 5 5 4 6 7 8 9 11 11 11 12 12 13 13 13 14 14 15 16 17 17 19 19 20 20 21 23 23 24 24 25 25 25 25 25 25 25 24 24 24 25
6 7 7 7 7 7 8 9 9 10 11 11 11 11 11 11 11 11 11 12 13 14 15 16 17 17 18 19 19 21 21 22 22 23 23 23 22 22 22 22 22 22 22 22
8 8 8 8 8 9 10 10 10 10 11 11 10 9 8 9 9 9 9 9 10 12 12 14 15 15 16 16 17 17 18 18 19 20 20 20 20 20 20 19 19 19 19 19
8 9 9 10 10 10 11 11 11 11 11 10 9 8 8 8 8 7 7 7 8 9 10 11 11 12 13 13 14 14 15 16 17 17 18 18 18 18 18 18 18 18 17 17
8 9 9 10 11 12 12 11 11 11 11 10 9 8 8 7 7 7 7 7 7 7 8 8 9 11 11 12 13 14 15 15 16 17 17 17 17 16 16 16 16 16 15 15
8 8 9 11 12 13 13 13 13 12 12 11 10 9 8 8 7 7 7 7 6 6 7 8 9 10 10 11 12 13 14 15 16 16 16 16 16 16 15 15 14 14 13 13
8 9 10 11 12 14 14 14 14 14 13 12 11 10 9 8 8 7 7 7 6 7 7 7 8 9 10 11 12 13 14 15 15 14 14 15 14 14 13 13 13 12 12 11

GEFSCGP_500_meanwind_072.txt.gz
Wind_Speed
22 22 21 21 21 21 21 21 20 20 23 26 27 27 27 28 31 34 37 38 38 38 35 33 31 29 27 26 25 25 25 24 25 24 25 25 24 24 24 25 25 25 25 25
19 19 19 20 20 21 21 20 19 18 21 24 25 26 26 26 29 31 34 36 38 38 37 36 35 33 31 29 29 28 26 25 26 26 26 28 27 27 26 25 26 26 27 27
16 17 18 18 19 20 20 19 17 17 20 22 23 23 23 24 27 29 31 33 35 36 37 37 36 35 33 31 30 30 28 26 26 27 29 30 28 27 27 26 27 27 29 30
14 15 17 17 18 19 18 18 18 18 20 20 21 21 20 21 23 26 28 31 33 35 36 37 37 36 34 33 31 31 30 29 29 28 28 29 29 27 26 27 28 29 30 31
13 15 16 17 17 19 18 18 19 19 19 21 20 21 20 20 20 22 25 27 29 31 34 36 36 36 35 34 32 31 30 31 31 29 27 26 26 26 26 27 27 27 29 29
14 15 17 17 17 18 18 19 20 20 18 19 19 20 20 19 19 21 22 24 27 29 31 33 34 35 34 34 33 32 31 31 31 29 27 25 25 23 24 25 25 25 26 27
14 14 16 17 17 17 18 18 19 19 19 19 19 19 18 18 18 18 20 22 25 27 28 29 31 32 32 33 33 32 31 31 30 28 26 25 25 23 21 21 21 23 24 25
14 12 14 15 15 15 15 17 17 17 17 17 18 19 16 16 16 16 17 21 23 24 26 27 29 30 30 30 31 31 31 29 28 27 26 25 25 23 23 22 22 21 21 21
14 12 12 13 13 13 14 15 16 17 17 17 18 18 17 15 15 16 17 19 20 21 24 26 27 28 28 29 28 28 28 28 28 27 26 25 24 24 23 23 22 21 20 20
13 12 11 12 12 11 13 14 15 16 16 16 17 16 16 17 16 16 16 18 19 19 20 22 23 24 25 26 26 26 27 28 28 28 26 25 24 23 23 22 23 22 21 21
13 12 11 11 11 10 11 13 14 16 16 16 16 15 15 15 15 15 15 15 17 20 21 22 23 24 25 25 26 27 28 27 26 25 25 24 24 24 23 22 22 22 22 23
12 12 11 11 10 10 11 13 13 14 15 15 15 14 14 13 13 13 13 14 17 18 20 20 21 22 24 24 25 25 26 25 24 24 24 24 24 24 23 23 23 23 24 25
11 11 10 9 9 10 11 11 13 14 15 16 15 13 12 13 13 13 14 14 15 17 18 20 21 23 23 24 24 24 24 24 24 24 25 25 25 25 24 24 25 26 26 28
10 10 9 8 8 9 10 11 12 13 15 15 15 14 14 15 15 14 13 13 13 14 17 19 20 22 23 23 23 23 24 24 24 24 25 25 26 26 25 26 26 27 28 29
8 8 8 8 8 9 10 10 11 12 14 14 14 15 15 16 16 14 13 12 11 12 14 16 17 18 20 20 21 22 23 23 23 24 25 25 26 26 26 27 28 29 30 30
9 8 7 7 7 8 9 10 11 11 12 13 14 15 15 15 15 14 12 12 11 12 13 13 15 16 18 20 20 21 22 23 24 25 25 25 26 27 27 28 28 29 29 30
7 6 5 5 6 6 7 8 9 10 11 12 13 14 14 14 14 12 11 11 11 12 12 14 15 16 17 18 20 21 22 23 24 25 25 26 26 27 27 27 27 28 28 29
5 5 5 5 5 6 6 7 8 10 10 10 11 12 12 12 12 10 10 10 12 12 13 14 15 16 17 18 20 21 22 22 23 23 23 24 24 24 25 25 26 26 27 27
4 3 3 4 4 6 6 8 9 9 9 9 8 9 9 10 10 10 10 12 13 13 13 14 15 16 17 18 19 20 20 20 20 21 21 21 22 22 23 23 24 24 24 25
2 2 3 3 5 6 6 7 8 7 7 8 7 8 8 8 8 8 9 10 11 12 12 13 13 15 16 17 18 18 18 19 19 19 20 20 21 21 22 22 23 23 22 22
1 1 2 4 5 6 7 7 8 7 8 7 7 7 7 7 6 7 8 8 9 10 11 12 12 13 14 15 16 17 17 18 18 19 19 19 20 20 21 21 21 21 20 20
1 2 3 4 5 6 7 8 8 8 9 8 8 7 6 6 6 6 7 7 8 9 10 11 11 12 13 14 14 15 15 16 17 17 18 18 18 19 19 19 19 19 19 18
3 3 4 6 6 7 8 9 9 9 9 9 8 7 7 5 5 6 6 6 7 8 9 10 10 11 11 12 13 14 14 15 15 16 16 17 17 18 18 18 18 18 17 17
4 5 5 6 7 8 9 10 10 10 10 10 9 8 7 6 6 6 6 5 6 7 8 9 10 10 11 12 12 13 13 14 14 15 15 16 17 17 17 17 17 16 16 15
6 6 7 8 9 10 10 11 11 12 12 11 10 9 8 7 6 7 7 6 6 6 7 8 9 10 10 11 12 12 13 13 14 15 15 16 16 15 15 15 15 14 14 13
6 7 8 9 10 11 11 12 13 13 13 12 11 10 9 9 8 8 7 7 6 6 7 7 8 8 9 9 10 12 13 13 14 14 14 13 13 13 13 12 12 11 11 11

GEFSCGP_500_meanwind_078.txt.gz
Wind_Speed
18 19 19 20 20 20 21 20 20 21 22 22 23 23 23 24 25 26 27 28 30 32 34 36 36 35 35 34 33 30 28 26 25 25 24 25 26 26 27 26 29 29 29 29
17 18 19 19 20 19 19 18 18 19 20 20 21 22 22 22 24 25 26 27 28 31 34 36 38 37 37 36 34 32 30 28 26 25 25 25 26 27 28 28 28 30 30 31
16 18 18 18 18 18 18 17 17 17 18 18 18 19 20 20 21 23 24 25 27 29 33 36 38 40 39 38 36 34 32 30 29 27 26 26 26 26 28 29 29 30 31 31
16 17 17 17 17 17 16 17 17 17 16 15 17 17 17 18 18 20 22 24 25 27 31 35 38 41 41 40 39 37 34 32 31 29 28 26 26 26 27 28 28 30 30 29
16 16 17 17 17 18 16 17 17 16 17 17 16 16 16 17 17 18 20 22 24 25 28 33 36 39 41 41 40 38 36 34 33 31 29 27 26 25 26 27 27 29 30 31
15 16 16 16 17 17 16 16 15 16 15 16 15 16 16 16 16 17 19 20 22 24 26 30 33 37 40 40 40 39 37 35 34 32 31 30 28 27 27 27 26 27 29 30
15 16 16 16 16 15 15 13 14 13 14 15 15 16 16 16 16 17 18 20 20 21 24 27 30 33 36 38 39 39 37 35 33 32 31 30 29 28 27 26 24 23 24 27
13 13 16 15 14 14 13 12 12 13 13 13 15 15 16 15 15 15 15 16 18 20 22 25 28 31 33 35 37 37 36 35 34 32 30 30 28 27 26 25 24 22 22 23
13 12 14 14 14 13 12 12 12 13 14 13 13 15 14 14 14 14 14 15 17 18 20 22 26 29 31 32 34 34 34 34 33 32 31 30 28 26 24 23 23 20 20 21
12 12 12 13 13 13 11 11 11 10 12 13 13 14 13 12 14 14 14 16 17 17 17 19 22 26 29 31 32 32 33 33 33 32 30 30 27 26 25 25 24 23 21 21
12 12 12 13 12 12 12 10 9 9 11 12 12 13 11 10 10 11 12 12 14 17 18 19 21 23 26 28 30 30 31 31 31 31 30 29 28 27 27 26 25 24 23 22
11 11 11 12 11 11 10 9 9 9 10 11 12 13 11 11 11 11 11 10 12 14 17 18 19 21 22 24 27 28 29 30 30 29 30 30 29 29 28 27 26 24 24 24
11 10 10 10 11 10 9 9 9 9 10 11 13 14 12 13 13 13 13 12 12 13 14 16 19 19 21 22 25 27 28 29 29 30 31 31 30 29 28 26 26 26 26 26
10 9 9 9 9 9 9 8 9 10 11 12 13 14 13 13 13 13 13 12 11 12 14 16 18 20 21 21 23 24 26 27 27 28 28 28 27 27 26 26 26 26 26 26
10 9 9 9 8 8 8 8 9 11 12 13 13 14 13 13 13 13 12 12 11 13 14 14 16 18 20 21 21 22 23 23 24 26 26 26 26 26 26 26 26 26 26 26
9 9 8 8 7 8 8 9 10 11 12 12 13 13 13 13 12 12 12 12 12 13 14 15 16 18 19 20 21 21 22 22 23 23 24 25 25 26 26 26 26 26 27 28
8 7 7 7 8 8 9 8 9 10 11 11 12 12 12 12 12 12 11 12 12 13 14 15 16 17 16 17 20 22 23 22 22 23 23 24 25 25 26 26 27 27 28 28
6 5 5 6 7 7 8 8 9 10 11 11 12 12 12 12 11 10 10 10 11 12 11 13 14 15 16 17 19 20 20 21 21 22 22 22 23 23 23 24 25 26 25 26
5 5 5 5 6 7 8 8 9 10 10 10 10 10 10 10 9 9 9 10 10 10 11 11 12 12 13 15 16 17 17 18 19 19 20 20 21 21 22 23 23 24 24 24
5 5 5 5 6 7 8 8 9 9 9 9 9 9 9 9 9 8 8 8 8 8 9 10 10 11 12 12 13 14 14 15 16 17 18 18 18 19 20 21 22 22 23 23
5 4 4 4 5 7 7 8 8 8 9 9 8 8 8 8 8 8 8 8 8 8 9 10 11 11 11 12 12 12 13 13 14 15 16 17 18 18 19 20 20 21 21 22
4 3 3 4 5 6 7 7 7 8 8 8 7 6 6 6 7 7 7 7 7 8 9 10 11 11 11 12 12 13 13 13 14 15 16 17 17 18 19 19 20 20 20 20
4 3 3 3 4 5 5 6 6 7 7 6 5 4 4 4 5 5 5 6 7 7 8 8 8 9 10 10 11 12 12 13 13 14 15 15 16 17 17 18 18 19 19 18
4 3 2 2 2 3 4 5 5 6 6 6 5 4 4 3 3 3 3 3 4 5 6 7 7 8 9 9 10 11 11 12 12 12 12 13 14 14 15 15 16 16 16 16
4 3 1 1 1 3 4 4 5 6 7 7 6 6 5 4 4 3 2 2 2 3 4 5 6 7 8 8 9 9 10 11 11 11 11 12 12 12 13 13 13 14 14 14
5 3 2 1 2 3 4 5 6 7 8 8 7 7 6 6 5 4 4 3 2 3 3 3 4 5 6 7 8 8 9 10 10 10 11 11 11 11 12 12 11 11 11 11

GEFSCGP_500_meanwind_084.txt.gz
Wind_Speed
10 9 9 7 10 13 16 17 18 16 17 22 22 22 21 22 25 26 26 27 27 29 31 33 36 37 37 36 36 35 34 32 31 29 28 28 28 27 27 27 27 25 25 25
8 7 8 10 14 15 15 15 16 16 18 22 23 22 20 22 25 25 26 26 29 30 31 33 36 37 35 36 37 36 36 34 33 31 30 29 30 27 26 27 26 25 24 24
7 6 11 13 14 14 13 14 16 18 19 21 23 23 21 21 25 26 26 27 27 31 33 35 35 34 35 37 36 36 37 37 35 33 32 30 28 28 27 25 23 23 24 25
9 10 14 15 14 13 14 15 18 19 20 20 19 24 22 24 25 25 26 25 27 30 33 33 33 33 35 35 37 38 38 38 37 36 33 28 26 26 26 23 22 23 24 26
7 10 14 14 13 14 15 16 18 18 19 20 19 24 25 25 24 26 26 25 27 28 30 31 31 33 35 36 37 38 39 38 37 36 35 31 28 26 26 24 23 24 23 24
7 9 12 13 14 15 15 15 15 15 17 20 19 22 23 25 24 24 24 21 23 24 27 29 30 33 34 34 36 38 39 38 37 36 35 32 30 27 25 22 22 22 23 24
7 10 12 14 14 14 14 15 16 17 19 22 21 22 24 24 23 22 21 21 21 23 27 29 30 31 33 34 36 38 38 37 37 36 36 33 31 29 26 23 23 23 23 24
9 12 11 12 14 15 15 15 17 19 20 21 23 23 21 20 19 19 20 21 21 22 25 27 29 29 31 33 35 36 37 38 37 37 35 33 31 30 27 25 24 23 24 23
11 12 13 14 16 15 14 14 15 19 19 21 22 21 20 20 20 19 20 21 21 21 23 24 26 28 30 31 33 35 36 36 36 36 34 33 30 29 27 26 25 24 24 23
13 14 12 13 13 13 14 14 15 16 19 20 20 21 21 20 17 17 19 19 20 19 21 22 25 27 28 28 30 32 33 35 35 34 33 32 30 29 28 27 26 26 25 25
14 13 11 12 12 13 14 13 15 16 16 20 21 23 22 20 18 17 17 17 18 18 18 19 21 23 25 25 27 29 31 33 33 33 33 31 29 29 27 27 25 25 25 25
14 13 11 12 12 13 14 13 14 16 16 19 22 25 23 22 18 16 17 17 19 20 19 18 19 20 21 23 25 26 27 29 30 31 31 30 29 29 28 27 26 24 23 24
14 13 12 11 10 12 13 12 12 15 17 18 20 23 23 22 19 18 18 19 20 20 20 18 18 19 19 20 22 23 24 26 28 29 29 28 27 27 27 27 26 25 25 25
13 13 12 10 9 11 11 11 13 15 17 19 19 22 22 22 21 21 20 20 19 19 18 17 17 18 19 18 20 22 23 24 26 27 27 27 26 26 27 27 27 27 28 28
13 12 11 10 10 11 11 11 14 16 17 19 20 22 21 21 22 21 20 19 19 17 16 16 17 18 19 19 19 20 21 22 23 24 25 25 26 26 27 27 28 28 29 29
12 12 11 10 10 11 11 13 14 15 18 19 21 22 20 21 21 21 19 18 18 17 16 17 17 18 18 19 19 18 19 20 21 22 24 25 25 25 26 27 28 28 29 29
10 11 11 10 9 10 10 12 14 15 17 19 20 20 20 19 20 19 18 18 17 16 16 17 17 17 17 17 18 18 18 20 20 21 22 23 24 25 26 25 25 26 26 26
11 10 11 9 8 9 11 13 14 15 17 18 19 19 19 19 19 18 17 16 15 14 13 14 14 15 16 16 17 18 18 18 18 20 21 22 22 22 22 23 23 23 23 24
10 10 9 8 9 10 13 14 14 17 18 18 18 19 19 19 18 16 15 14 14 13 12 12 12 12 13 14 14 14 16 17 17 17 18 19 20 20 20 21 22 22 22 23
10 10 10 9 11 11 14 14 15 17 18 18 18 18 18 17 16 15 14 13 13 12 12 11 11 11 12 12 12 14 14 15 16 16 17 18 19 18 19 20 20 20 20 21
9 10 10 10 12 14 15 15 16 17 17 18 18 18 17 16 15 15 14 13 13 12 12 11 11 11 11 11 11 12 12 13 13 14 15 15 16 16 17 17 17 18 19 20
8 9 10 10 11 14 14 15 16 16 17 17 17 17 16 15 14 13 13 12 11 10 9 9 9 9 10 10 10 10 11 11 12 12 12 13 13 14 15 15 16 17 18 19
8 9 9 9 11 12 13 14 15 15 15 15 16 15 14 14 12 12 11 11 10 8 8 7 8 8 9 9 9 8 9 9 10 10 11 12 14 14 15 15 15 16 17 18
8 9 9 9 10 11 12 13 13 14 14 14 14 14 13 12 11 10 10 9 7 7 7 7 7 7 8 8 9 9 8 9 9 10 10 11 12 12 12 13 14 15 16 16
6 6 8 9 9 10 11 11 12 13 13 13 13 13 12 11 10 9 9 8 6 5 5 5 6 5 5 5 6 7 8 8 8 9 10 10 11 11 11 12 13 13 14 14
6 7 8 8 8 9 9 10 11 12 12 12 12 12 12 11 10 10 8 7 6 4 3 3 3 4 4 5 5 6 6 7 7 8 9 10 10 11 11 11 12 12 12 12

GEFSCGP_500_meanwind_090.txt.gz
Wind_Speed
15 14 13 13 14 15 15 15 14 12 12 14 15 16 17 19 21 23 24 25 26 27 29 29 29 30 30 31 31 30 31 31 31 31 32 32 29 28 28 27 27 27 25 26
15 14 14 15 14 15 15 15 13 13 14 16 17 19 21 23 24 25 25 26 27 28 28 29 30 30 30 31 31 31 32 32 32 32 32 32 30 29 28 29 27 26 25 23
16 16 16 15 14 14 14 13 14 15 17 18 21 23 24 25 25 25 25 25 28 29 29 29 29 30 31 31 31 32 32 33 31 30 30 31 32 31 30 28 27 25 25 24
18 17 16 15 14 13 13 12 14 15 17 19 21 24 24 26 25 26 26 26 27 27 28 29 29 29 30 31 31 31 31 32 31 30 30 30 30 31 30 27 27 26 23 21
18 17 16 14 14 13 13 13 14 15 17 18 20 23 22 23 24 25 26 26 26 27 29 29 29 30 30 31 30 30 31 31 31 30 30 31 30 29 30 29 28 27 25 22
16 16 15 13 13 13 13 14 15 16 17 19 19 21 21 22 23 25 26 26 27 28 29 30 30 30 28 29 29 30 29 29 30 31 30 30 31 29 28 28 29 28 26 24
15 14 12 11 12 13 13 14 15 15 15 17 18 20 20 21 22 23 23 24 26 26 26 27 29 29 27 27 28 28 28 28 28 28 28 29 29 29 29 28 27 26 24 23
14 13 11 10 9 11 11 13 14 16 16 17 18 19 19 20 19 20 21 23 24 24 25 25 25 25 24 25 25 25 26 26 25 25 27 28 27 26 26 27 26 24 22 21
14 13 12 11 11 12 13 14 15 16 17 17 17 18 18 19 20 20 20 20 22 22 23 22 21 21 20 21 22 22 24 24 24 24 25 26 25 25 24 26 26 24 22 20
14 13 12 12 13 14 15 16 16 17 18 18 17 17 18 19 19 19 19 19 19 20 20 19 19 19 19 20 21 21 22 22 23 23 23 23 23 23 22 23 24 24 22 21
13 12 12 13 14 15 16 16 17 17 18 18 18 18 18 19 19 20 19 18 18 17 17 17 18 19 19 19 21 20 19 20 21 22 22 22 22 22 23 22 22 22 22 22
13 13 13 13 14 16 16 16 16 17 17 17 18 19 19 19 20 20 19 18 18 17 18 18 19 19 20 19 19 19 18 17 18 19 21 23 22 22 21 22 21 20 20 22
12 12 12 12 13 14 15 15 16 17 17 17 18 19 19 21 21 20 19 19 20 19 19 19 19 19 19 18 17 17 16 16 17 18 19 20 20 20 20 21 21 20 19 19
12 11 12 12 12 13 13 14 15 15 16 18 18 19 19 20 21 21 20 20 20 19 19 19 19 18 17 17 16 16 16 16 16 17 17 18 19 19 19 20 19 19 19 19
11 12 12 12 12 13 13 13 13 14 16 17 18 19 19 20 21 22 21 20 20 19 18 18 18 17 16 15 15 16 16 16 16 16 17 18 18 18 18 18 19 19 19 19
11 11 13 13 12 12 12 13 12 13 14 16 17 19 19 20 21 21 21 20 20 18 17 16 15 14 14 14 14 15 16 16 16 17 17 17 17 18 19 18 19 19 20 20
13 13 13 12 11 11 12 11 11 12 13 15 17 18 19 20 21 21 20 19 18 17 16 15 13 12 12 12 13 13 14 14 15 15 15 16 17 18 18 18 17 18 19 19
11 11 10 9 9 10 9 11 11 11 13 15 17 19 19 20 20 20 20 19 18 16 14 13 12 12 11 11 11 12 13 13 14 14 15 15 16 16 16 17 17 17 18 19
11 10 8 8 8 9 10 10 11 13 14 16 17 18 19 19 20 19 18 17 16 14 13 12 11 10 10 10 10 11 12 12 12 13 14 15 15 16 16 17 17 17 17 18
11 11 9 7 8 9 9 11 12 13 14 16 17 18 18 18 18 17 16 15 14 12 10 9 9 8 8 9 10 10 10 10 11 11 12 12 13 14 15 15 15 15 16 17
11 9 8 8 8 9 9 10 12 13 15 16 17 17 17 17 16 15 14 13 12 10 8 7 6 6 7 7 8 8 9 10 9 9 10 11 12 12 13 13 14 14 14 13
11 8 6 7 7 7 8 10 12 14 15 16 16 16 16 15 14 13 13 12 10 8 7 6 5 6 6 6 7 8 8 8 9 9 10 11 10 11 11 11 11 12 12 11
9 7 5 4 4 5 8 10 11 13 14 15 16 16 15 14 13 12 12 10 9 6 5 4 4 4 4 4 5 6 7 7 6 7 8 9 9 10 10 10 10 10 10 10
8 5 4 2 3 6 8 10 11 12 14 15 15 15 14 13 12 11 10 8 6 4 3 2 2 3 3 3 5 5 5 6 5 6 6 7 7 7 7 7 8 8 8 8
7 5 3 2 3 6 8 10 11 12 13 14 15 15 15 14 12 11 9 7 5 4 3 2 1 0 1 2 3 4 4 4 4 4 5 5 6 6 6 6 7 6 6 6
6 4 2 1 4 6 8 9 10 12 13 13 14 15 14 13 11 10 9 7 6 5 4 4 3 3 3 3 3 3 2 3 3 3 3 3 3 4 4 4 4 4 4 5

GEFSCGP_500_meanwind_096.txt.gz
Wind_Speed
16 17 17 18 18 18 18 17 17 19 21 22 22 22 23 23 23 24 23 24 24 25 26 27 27 28 28 28 29 29 28 29 29 29 29 30 30 31 32 33 33 32 32 32
16 17 18 19 19 18 18 18 18 19 20 21 21 21 21 21 22 22 23 23 23 24 24 26 27 27 28 28 28 28 28 28 29 29 30 30 30 31 32 33 32 31 31 31
18 18 19 18 18 18 18 17 18 19 21 22 22 21 21 22 22 23 23 23 23 24 25 26 27 27 27 27 27 28 27 27 28 29 29 29 30 31 31 32 32 32 31 31
19 19 18 18 18 17 17 17 18 19 20 21 22 22 21 22 23 24 24 25 25 25 26 27 27 27 27 26 27 27 27 27 27 27 28 28 29 30 30 30 29 30 31 31
19 19 17 17 17 16 16 17 17 18 19 20 20 21 19 21 22 23 25 25 25 25 26 26 27 27 27 27 27 27 27 27 27 27 27 27 27 28 29 29 29 28 28 28
18 17 16 16 17 16 16 16 17 17 17 18 19 20 19 20 21 21 22 23 24 25 25 25 26 27 27 27 27 27 27 27 27 27 26 26 25 25 26 28 29 29 27 26
16 16 15 15 16 16 15 16 17 17 16 17 17 18 18 18 19 19 20 21 22 24 24 24 25 26 26 26 26 27 27 27 27 26 26 25 24 24 24 25 27 27 25 25
16 16 15 15 15 15 15 15 16 17 17 16 17 17 17 17 18 19 20 21 21 21 22 23 24 26 25 25 25 25 25 24 25 25 25 24 23 23 23 24 25 25 24 23
15 16 16 15 15 15 15 15 15 16 16 16 15 15 16 17 18 19 20 19 19 20 21 22 23 24 24 25 25 23 23 23 22 24 25 24 23 22 22 23 23 23 23 22
15 16 16 15 15 15 15 15 15 16 17 16 15 15 15 16 18 18 19 19 19 20 20 21 22 22 23 24 23 23 22 22 22 23 24 24 22 21 22 22 23 23 23 22
15 15 15 15 14 14 15 15 15 16 17 17 17 15 16 17 18 18 18 19 19 20 20 21 21 21 22 21 22 22 22 22 22 22 22 23 22 21 21 22 23 22 21 22
14 15 15 15 14 14 15 15 16 17 17 17 18 16 16 18 19 19 20 20 20 20 20 21 22 22 22 22 22 22 22 22 21 21 21 20 21 21 20 20 22 22 22 23
15 15 15 15 14 14 14 14 15 16 17 18 18 18 18 19 20 21 22 22 22 22 22 23 23 23 23 23 23 22 22 22 22 22 22 21 21 20 20 21 21 21 22 23
15 14 14 14 14 14 14 14 14 15 16 17 17 18 19 21 22 23 23 23 24 24 24 24 24 24 23 23 23 23 22 22 21 21 21 21 21 21 20 21 22 21 22 23
15 14 13 13 13 13 13 13 14 15 16 18 17 19 21 22 22 23 24 24 25 24 24 25 24 24 23 23 22 21 21 20 20 20 20 21 21 21 21 22 22 21 22 22
16 15 13 13 14 14 13 14 15 15 17 18 19 20 22 23 23 24 24 25 25 25 25 24 23 23 21 21 20 19 19 19 19 19 19 20 21 21 21 22 21 20 21 21
15 15 14 14 14 13 13 13 14 15 17 18 20 21 22 23 24 25 25 25 25 25 24 23 23 21 19 18 18 17 17 17 18 18 19 19 20 20 21 21 21 21 21 20
15 16 15 14 13 13 12 13 14 15 16 18 19 21 22 23 24 25 26 26 25 24 23 22 21 20 18 17 17 16 16 16 16 17 18 19 19 20 19 20 21 20 19 19
14 14 13 13 12 11 11 13 14 15 16 18 20 21 22 24 24 25 25 25 24 22 21 20 19 18 16 15 14 15 15 15 16 16 17 18 18 18 19 18 18 19 18 18
13 13 13 12 11 11 11 12 14 16 16 18 20 21 23 23 24 24 24 23 22 20 19 18 17 16 14 13 11 11 12 13 13 14 15 16 16 17 17 16 16 17 16 16
12 12 12 11 11 11 12 13 14 15 16 18 20 21 22 22 22 22 21 20 19 18 16 15 14 13 11 10 9 9 9 11 12 12 12 12 13 14 15 15 14 14 15 15
11 11 11 11 11 12 12 12 13 15 16 18 20 21 20 20 21 20 19 18 16 15 13 12 12 10 9 8 8 8 8 9 10 11 11 11 11 12 13 12 12 12 13 14
11 10 10 10 10 10 10 11 13 15 17 18 19 19 19 19 19 18 16 15 13 11 10 8 7 7 7 6 6 7 7 7 7 9 10 10 10 10 10 10 11 11 11 11
11 10 8 8 8 9 9 11 13 15 16 17 17 18 18 18 17 15 14 13 10 8 7 5 5 4 5 5 5 5 5 6 6 7 8 9 9 9 10 10 10 10 9 9
10 9 8 7 7 7 8 10 12 14 15 16 16 17 17 16 14 12 11 10 8 6 4 2 1 0 2 3 4 4 4 5 6 6 7 7 8 8 8 7 7 7 7 7
10 9 8 7 7 7 8 9 11 13 14 15 15 15 14 13 12 11 9 8 6 5 3 2 2 2 3 3 3 4 4 4 5 5 5 6 6 6 6 5 5 4 4 4

GEFSCGP_500_meanwind_102.txt.gz
Wind_Speed
14 14 15 15 16 16 15 15 15 17 16 16 17 18 19 20 20 21 22 23 23 24 25 25 25 26 26 27 27 28 28 28 28 28 28 28 28 30 31 32 32 33 32 33
14 14 15 14 14 14 14 14 14 15 15 15 16 17 17 19 20 20 21 22 22 23 23 24 25 25 26 26 27 28 28 28 27 27 28 29 29 30 31 32 32 32 33 33
14 14 14 13 13 13 13 13 14 14 14 14 14 15 17 18 19 20 21 21 21 22 22 23 25 26 27 27 27 28 28 29 28 27 28 28 29 30 30 31 32 32 33 33
14 13 13 12 12 12 12 13 13 13 11 12 12 11 16 17 18 19 20 21 21 22 23 24 24 25 26 27 27 27 27 27 27 27 28 28 29 30 30 31 32 32 33 33
13 12 12 12 12 12 13 13 12 12 12 12 13 11 13 16 17 18 19 19 20 21 22 22 23 24 25 26 27 27 28 28 28 28 29 29 29 30 31 31 32 33 33 33
12 11 11 12 12 12 12 11 11 11 11 11 13 12 12 15 16 17 17 18 19 20 21 22 22 23 24 25 26 27 28 28 29 30 30 30 30 30 30 31 31 31 32 32
10 11 11 11 11 11 11 9 8 9 10 11 13 12 13 15 15 16 17 18 19 20 21 22 23 23 24 25 26 26 27 28 29 30 30 31 32 32 31 31 31 30 30 30
9 10 11 11 11 11 10 10 9 10 10 11 14 13 14 14 15 16 17 18 19 20 21 22 22 23 24 25 25 25 26 27 28 29 30 31 31 31 31 31 30 30 30 30
10 11 11 10 11 11 10 10 11 10 10 11 13 14 15 15 15 16 17 18 19 20 22 22 22 23 23 24 25 26 27 28 29 29 29 30 30 30 31 30 30 30 29 29
11 11 11 10 10 11 11 11 11 10 10 10 11 13 14 15 16 17 18 20 21 21 22 23 23 24 25 25 26 27 27 27 28 28 29 29 29 29 29 28 29 29 29 29
11 11 11 11 10 11 11 12 11 11 12 11 11 13 16 17 18 18 20 21 22 22 23 23 24 25 26 26 26 26 26 26 25 25 26 27 28 27 27 26 27 28 27 27
12 12 12 12 12 12 12 12 12 12 13 13 13 16 17 18 19 20 21 22 23 23 24 25 25 26 25 25 25 25 25 25 25 24 25 25 26 26 25 25 25 26 26 25
12 12 11 11 12 12 12 12 12 13 14 14 14 17 19 19 20 21 21 22 23 24 25 25 26 26 25 25 25 25 25 25 24 24 24 25 25 24 24 24 23 24 24 24
13 13 12 12 13 14 13 13 13 13 13 14 15 17 20 20 21 21 22 23 24 25 26 26 27 27 27 26 26 26 25 25 24 24 24 24 23 23 22 22 22 23 23 23
14 13 13 14 15 14 14 14 14 14 15 15 16 18 19 20 21 22 23 25 25 26 27 27 27 27 26 26 26 25 25 24 24 23 23 22 22 21 21 21 21 21 21 20
14 14 13 13 13 13 13 14 14 15 15 16 17 19 20 21 22 23 25 26 27 27 27 27 27 27 26 26 25 25 24 23 22 22 22 21 20 19 20 20 20 20 20 20
14 14 13 13 13 12 13 14 14 15 15 17 18 20 21 22 23 25 26 27 27 27 27 27 27 26 25 24 23 22 21 21 20 20 20 20 19 19 19 20 21 20 20 20
13 12 12 12 12 12 13 13 14 15 16 18 19 20 22 24 25 26 27 28 27 27 26 26 25 24 23 22 20 19 18 18 17 17 17 18 18 17 17 17 18 18 18 18
12 11 11 11 12 12 13 13 14 15 17 18 20 22 23 25 26 27 27 27 26 25 25 24 23 21 20 19 18 16 15 15 15 14 15 15 15 15 15 16 16 18 18 18
12 12 10 10 11 11 12 12 13 15 17 18 20 22 24 25 27 27 26 26 25 24 23 21 20 18 17 15 14 13 12 11 12 12 13 14 13 13 14 15 15 15 15 16
11 11 10 10 11 11 12 11 12 14 17 19 21 23 24 25 26 26 25 24 23 21 19 18 16 15 13 12 10 9 8 8 8 9 10 11 12 12 13 13 14 13 13 12
10 10 10 9 10 11 11 12 13 15 17 19 21 22 23 24 24 24 23 22 20 18 16 14 12 10 9 8 7 6 5 6 6 7 8 10 10 11 11 11 12 12 11 10
9 9 9 9 10 9 10 11 13 15 17 19 21 22 22 23 22 22 21 19 17 14 12 10 8 7 6 5 5 4 3 4 5 6 7 9 9 9 8 9 9 9 9 9
8 8 8 8 8 9 9 11 13 15 17 19 20 21 21 21 20 19 18 15 13 10 8 6 5 3 2 2 3 3 3 3 5 6 7 8 8 8 8 8 7 7 7 7
7 7 8 8 7 8 9 10 13 15 17 18 19 20 19 18 17 16 13 12 10 7 5 3 2 2 2 2 3 3 4 5 5 6 8 8 8 8 7 7 7 6 5 5
5 5 6 7 7 7 8 10 12 14 16 17 18 17 17 15 14 13 11 10 8 6 4 3 3 3 3 3 4 5 6 6 7 8 8 8 9 8 8 7 7 6 5 4

GEFSCGP_500_meanwind_108.txt.gz
Wind_Speed
12 13 12 12 12 12 10 11 13 15 15 12 12 15 19 18 16 17 19 20 22 22 20 22 23 22 23 24 24 25 25 26 26 26 26 26 27 28 28 28 29 30 30 31
10 9 11 12 15 16 15 15 15 15 16 13 12 16 19 17 17 17 19 20 21 22 21 22 23 23 24 24 25 26 26 27 27 27 27 27 27 28 29 29 30 30 31 31
10 8 11 13 15 15 15 15 15 17 17 15 14 17 19 19 18 18 19 21 21 22 22 22 23 23 24 25 26 27 27 28 28 28 28 28 29 29 30 30 31 31 31 31
9 10 12 13 12 13 14 15 14 15 14 13 14 16 20 22 20 19 18 20 21 22 22 22 23 24 25 26 27 27 28 28 29 30 31 31 31 31 32 32 31 31 31 31
7 9 11 12 11 13 13 14 15 15 15 15 15 16 20 21 21 19 16 18 20 20 21 22 23 24 25 26 26 27 27 28 28 29 30 31 31 31 32 32 32 32 32 31
8 9 10 11 12 12 11 12 13 15 16 16 17 17 19 22 20 18 15 16 19 20 21 22 23 24 25 26 27 27 27 27 28 28 29 30 30 31 32 32 32 32 31 31
7 8 10 11 11 12 13 13 12 14 14 15 16 17 20 21 19 18 15 17 20 21 22 23 24 25 26 27 27 27 28 28 29 29 30 30 30 31 32 32 32 31 31 31
10 10 10 10 10 11 11 11 12 13 13 13 14 17 20 20 18 18 19 21 21 23 23 24 24 25 26 26 27 27 28 28 29 29 30 30 31 31 31 31 31 31 31 31
11 10 10 9 9 10 10 10 12 13 12 14 13 15 18 18 18 17 19 20 21 23 23 23 24 25 26 26 26 27 27 28 28 28 29 30 31 31 31 31 30 30 31 31
9 9 8 7 8 11 12 12 13 12 12 12 11 14 18 18 19 18 18 20 22 24 23 24 25 26 27 27 27 28 28 28 28 29 30 30 30 30 30 30 30 30 30 30
11 12 11 10 10 10 11 13 14 13 14 14 15 15 19 17 18 17 20 22 23 24 25 26 27 28 28 29 29 29 29 29 29 29 29 29 29 29 29 29 29 29 29 29
13 14 13 13 12 11 13 13 14 14 15 17 20 20 18 18 19 19 21 22 24 25 26 27 28 28 29 29 29 30 30 29 30 29 29 29 28 28 29 29 29 28 28 28
14 14 14 14 14 13 12 12 13 14 15 16 18 20 20 21 22 22 23 24 25 26 27 28 28 29 29 30 30 30 30 30 30 29 28 28 28 28 27 27 27 27 26 26
16 15 14 12 10 11 11 12 13 15 15 16 19 22 22 22 22 23 25 26 26 27 28 29 30 30 31 31 31 30 30 30 30 29 28 27 28 27 26 25 25 25 24 23
15 15 15 13 12 11 11 11 12 13 15 18 21 22 22 22 23 24 26 27 27 28 29 30 30 31 31 31 31 30 29 28 28 28 27 27 27 25 25 24 23 22 22 22
14 14 14 13 13 12 11 12 14 15 16 18 21 23 23 24 25 27 28 28 28 28 29 30 30 30 30 30 29 28 27 26 26 26 26 26 25 24 23 22 22 21 20 20
14 14 14 13 12 11 12 12 13 15 17 19 21 23 23 25 27 28 28 29 29 29 30 30 30 29 29 28 27 26 25 24 24 24 24 23 23 22 21 21 20 19 18 18
13 13 13 13 13 13 12 13 14 16 18 19 21 23 24 25 27 28 28 29 30 30 29 29 29 28 27 25 24 23 22 22 21 21 21 20 19 18 18 17 18 17 17 16
11 12 12 12 12 12 12 14 14 16 18 20 21 23 25 27 28 27 28 28 29 29 28 28 27 25 24 23 22 20 19 18 18 17 16 15 15 15 14 13 14 14 14 15
11 11 12 12 13 14 13 13 14 17 19 19 21 22 25 26 28 28 28 28 28 27 26 25 24 22 21 19 19 17 16 15 14 13 12 12 12 12 12 11 10 11 12 12
11 11 11 11 12 14 14 12 14 16 18 21 22 23 25 26 27 27 27 26 25 24 23 22 20 19 17 16 15 14 13 12 11 9 9 9 9 9 10 10 9 9 10 11
9 10 10 11 12 13 13 13 16 18 20 22 23 24 25 25 26 26 25 24 23 22 20 18 16 15 14 13 11 10 9 8 8 7 7 8 8 7 8 9 8 8 8 8
8 9 9 10 11 12 13 14 15 18 20 21 22 24 24 25 24 24 23 22 21 19 17 15 13 12 10 9 8 7 6 5 5 5 5 6 6 7 7 7 8 7 6 6
7 8 8 9 10 11 12 13 15 17 19 21 22 23 23 23 22 22 20 19 17 15 13 12 10 8 7 6 5 4 3 1 2 4 5 6 6 7 7 6 5 5 6 6
5 6 8 9 9 10 11 13 15 17 18 20 22 21 21 21 20 19 18 16 14 12 10 9 7 5 4 4 3 2 0 2 5 5 6 7 6 6 6 5 5 5 5 4
4 5 7 8 9 11 12 13 15 16 18 19 19 19 19 18 17 16 14 13 12 10 8 6 4 3 2 2 2 2 4 5 7 7 7 7 7 6 6 6 6 6 5 4

GEFSCGP_500_meanwind_114.txt.gz
Wind_Speed
12 13 14 14 15 16 17 16 15 14 14 14 12 12 13 13 13 14 15 16 17 19 16 15 16 15 15 14 14 12 13 14 15 16 16 18 21 22 23 23 24 24 24 24
12 12 13 15 17 18 16 14 13 13 13 13 13 13 14 14 14 15 16 16 16 16 15 14 14 14 15 15 14 13 14 15 16 18 19 21 22 23 24 24 24 24 24 24
12 13 15 16 16 17 16 14 12 12 12 13 14 16 16 16 16 16 15 15 14 15 16 15 14 15 15 16 15 16 16 17 18 19 21 22 22 23 25 24 25 25 25 25
14 15 14 15 15 15 16 15 14 15 15 15 16 17 16 16 17 16 16 15 14 15 15 15 15 15 16 17 17 18 18 19 19 20 21 23 23 24 25 25 25 25 26 26
14 14 13 14 14 14 16 17 16 16 18 18 18 18 18 19 19 18 16 15 15 16 15 16 16 16 17 18 18 19 19 20 21 22 23 24 24 25 25 25 25 26 27 27
13 13 12 13 13 13 16 18 18 17 18 19 19 19 20 19 20 19 18 17 16 16 16 16 16 17 17 18 19 20 21 21 22 23 24 25 25 26 26 26 26 26 27 27
11 11 12 13 13 15 16 17 17 16 17 18 19 20 20 20 20 19 20 19 17 17 17 17 17 18 19 19 20 21 22 23 24 24 25 25 26 26 26 27 27 27 27 28
10 10 11 12 13 13 14 16 17 16 16 16 18 20 19 19 18 18 20 19 18 18 17 17 18 19 20 21 21 22 23 24 25 25 25 26 26 27 27 27 27 27 27 27
10 10 11 12 12 13 14 15 15 16 15 14 15 16 16 15 16 18 19 19 18 17 17 17 19 20 20 22 23 24 25 26 26 27 27 27 27 27 27 27 27 27 27 27
9 11 12 13 14 14 13 13 14 15 16 16 15 14 13 14 16 18 17 17 18 16 16 18 20 21 22 23 24 26 27 27 28 28 28 28 28 28 28 28 28 28 27 27
10 11 12 13 13 13 13 14 15 15 15 16 17 15 15 14 14 15 14 15 17 17 18 19 21 22 23 24 25 27 28 28 28 28 29 28 28 28 28 28 28 28 27 27
11 12 12 13 13 13 13 13 15 15 14 14 16 15 14 14 14 15 14 15 16 18 20 22 23 24 25 26 27 28 28 29 29 30 30 30 29 29 29 28 28 27 26 26
12 13 13 14 14 14 15 15 15 14 14 15 16 16 15 16 17 16 17 17 19 20 22 23 25 25 26 27 28 29 29 29 29 30 30 30 29 29 29 28 27 27 26 26
13 13 13 13 13 14 16 16 16 16 16 16 16 17 18 18 19 18 20 21 21 22 24 25 25 26 27 28 28 29 29 29 29 29 28 28 28 27 27 27 26 26 25 25
13 13 13 13 14 15 17 17 17 17 17 17 17 18 18 19 20 20 20 21 24 24 25 26 26 27 27 28 28 28 28 28 28 28 27 26 26 26 25 25 24 23 23 22
13 14 14 13 14 15 16 17 17 18 18 17 18 18 18 20 20 21 22 24 25 26 27 27 27 27 27 27 28 28 27 27 27 26 25 25 25 24 23 23 23 22 21 20
13 13 13 14 15 15 16 16 17 17 17 18 18 19 21 22 21 22 24 25 26 26 27 27 27 27 27 27 27 26 25 25 24 24 23 23 22 22 22 21 21 20 19 18
11 12 13 14 14 15 15 16 16 16 17 17 19 20 21 21 22 23 25 26 27 27 27 27 27 27 26 26 25 24 23 23 22 21 20 20 19 18 18 18 17 16 16 16
10 11 11 11 12 12 13 14 14 15 17 17 18 19 20 21 23 25 26 26 26 26 26 26 26 25 24 23 23 22 21 20 19 18 17 16 15 14 13 12 12 12 12 12
8 8 9 9 10 10 10 12 13 14 14 16 18 19 20 22 24 24 25 25 25 25 25 24 24 22 22 21 20 19 18 17 16 15 14 13 11 10 8 8 8 8 8 8
6 7 7 8 9 9 9 10 11 12 14 16 17 19 21 22 23 24 24 25 23 23 22 22 21 20 19 18 17 16 15 14 13 12 10 9 7 5 5 5 5 6 6 7
4 4 5 6 7 8 8 9 11 12 14 16 18 19 21 22 22 23 23 23 22 21 20 20 18 17 16 15 13 12 10 10 9 8 6 5 4 3 3 3 4 5 6 7
2 3 3 4 5 7 8 9 10 13 15 16 18 20 20 21 21 20 20 20 19 18 17 16 13 12 12 11 9 7 6 6 5 4 3 3 3 3 4 4 4 5 6 7
1 1 3 4 6 7 8 9 12 14 15 16 17 18 18 19 18 18 18 17 16 15 14 12 10 10 9 8 6 4 4 3 1 0 2 3 4 5 5 5 6 6 6 6
2 3 3 4 5 6 8 10 12 13 14 15 16 18 18 18 18 17 15 15 14 12 11 10 8 8 6 5 4 3 2 1 2 3 4 5 6 6 6 6 6 6 6 6
4 4 4 5 6 7 9 10 11 12 13 14 16 16 17 16 15 14 13 12 12 11 9 8 8 6 5 4 4 4 4 4 5 6 7 7 7 7 7 8 8 7 7 7

GEFSCGP_500_meanwind_120.txt.gz
Wind_Speed
16 17 18 19 19 20 22 23 23 24 25 24 23 22 22 21 19 18 17 17 16 16 15 14 14 14 15 15 14 14 14 14 15 17 17 18 20 21 23 24 24 24 24 24
15 16 17 17 18 19 20 21 22 23 24 23 22 21 20 19 18 17 16 16 16 15 15 15 15 15 15 14 14 16 15 15 15 15 16 18 19 20 20 21 22 22 22 23
14 15 16 16 17 18 19 19 20 21 23 23 22 21 21 20 18 17 15 15 15 15 16 17 17 16 14 14 14 14 15 16 16 16 17 18 18 18 19 20 20 21 22 23
13 14 14 15 16 17 18 19 20 20 21 21 21 21 20 19 18 16 15 14 14 15 15 16 15 15 14 14 14 14 14 15 16 17 18 19 18 19 19 19 20 21 22 23
12 12 13 14 15 16 17 18 19 20 19 20 20 20 18 18 17 15 15 15 15 15 16 16 15 16 15 15 15 15 15 16 17 17 18 18 19 19 20 20 22 22 23 24
13 13 14 14 15 16 17 18 18 18 17 18 18 19 17 16 16 15 15 15 16 16 17 17 17 17 17 17 17 17 17 17 17 18 19 19 20 21 21 22 23 23 24 24
13 14 14 14 15 16 16 17 17 17 17 17 17 17 15 15 15 15 15 15 16 18 18 19 19 18 18 18 18 18 18 19 20 21 21 22 22 23 23 24 24 24 24 25
14 14 14 14 14 15 16 16 17 17 17 17 17 16 14 14 15 15 15 16 17 18 19 19 19 19 19 19 19 20 21 22 23 23 24 24 25 25 25 25 25 25 26 26
13 14 14 14 15 15 15 16 16 17 17 17 16 15 14 14 14 15 15 16 16 17 19 19 19 20 20 21 22 23 24 25 25 25 26 27 27 27 27 27 27 27 27 27
13 13 13 13 15 15 14 14 15 16 17 17 16 16 15 16 15 15 16 16 17 18 18 19 19 20 22 23 24 24 26 27 27 27 28 28 28 28 28 28 28 28 28 28
12 13 13 14 15 14 14 14 15 16 16 16 16 15 15 15 15 16 16 16 17 18 19 19 20 21 22 23 25 26 27 28 28 28 28 28 28 28 29 29 29 29 28 28
13 13 14 14 15 15 15 14 15 15 15 15 16 15 15 15 15 16 16 16 17 18 19 19 21 22 23 25 25 26 26 27 28 28 29 29 29 29 29 29 30 30 30 30
14 14 15 14 15 15 16 15 14 14 14 14 15 14 14 15 16 15 16 17 18 19 20 20 22 23 24 25 26 26 26 27 27 28 29 29 30 30 30 30 30 30 29 29
15 15 15 15 15 14 15 15 14 15 15 15 15 14 15 16 17 17 17 18 20 20 21 23 23 24 25 25 26 26 26 27 28 28 28 28 28 28 28 28 28 27 27 27
15 15 15 14 15 15 14 15 15 15 16 16 15 16 16 17 18 18 19 21 22 22 23 24 25 25 26 26 26 27 27 27 27 26 26 26 26 26 25 25 25 25 24 24
14 15 14 13 14 14 14 13 14 15 15 16 17 17 18 19 20 20 21 22 23 24 24 25 25 26 26 27 27 27 26 26 25 25 25 24 24 24 23 23 23 23 22 22
13 13 14 13 13 14 14 14 14 15 16 17 17 18 20 21 21 22 23 23 24 25 25 25 26 26 26 26 26 26 25 24 24 24 24 23 23 23 22 21 21 20 20 19
12 12 12 12 12 13 13 14 14 15 16 17 18 19 20 21 22 22 23 24 25 25 25 24 25 25 25 25 25 24 23 23 23 23 22 22 22 20 19 19 18 17 17 17
9 9 9 11 11 11 12 12 13 14 15 16 17 19 20 21 21 22 23 24 24 24 23 24 24 23 23 23 23 22 22 22 21 21 20 19 18 17 16 15 14 14 14 14
7 7 7 8 9 10 10 11 12 13 14 15 17 18 19 20 20 21 22 22 22 22 21 21 21 22 22 21 20 20 20 19 18 18 17 16 15 14 12 11 10 10 10 10
4 5 6 7 7 8 9 10 12 12 13 15 16 17 19 20 21 21 21 21 20 20 20 20 20 20 20 19 18 17 17 16 15 14 13 12 10 9 8 7 7 6 6 7
1 2 4 5 6 6 8 9 10 12 14 15 17 18 19 20 20 20 20 20 19 19 18 18 17 17 15 14 14 13 12 11 11 10 9 8 6 5 5 5 4 4 5 5
1 1 2 3 5 6 7 9 11 13 15 16 18 19 19 19 19 19 18 18 18 17 16 16 15 14 13 12 11 10 9 8 8 7 5 4 3 3 3 3 4 4 4 4
2 2 2 3 4 5 7 9 11 13 14 16 17 17 17 18 17 16 17 17 17 15 14 13 12 11 10 9 8 7 6 5 4 3 2 2 2 3 3 3 3 3 4 5
3 3 4 4 5 6 7 9 11 13 14 14 15 15 16 16 15 14 14 14 14 13 11 9 9 8 7 7 6 5 4 2 0 1 2 2 3 4 4 5 5 5 5 5
4 4 5 5 6 7 8 10 11 13 13 14 14 15 15 15 14 13 13 12 11 10 9 7 7 6 5 5 4 4 3 2 3 3 4 5 5 6 6 6 6 6 7 7

GEFSCGP_500_meanwind_126.txt.gz
Wind_Speed
14 14 15 16 16 17 17 17 18 20 20 20 20 21 21 21 21 21 20 20 20 19 19 19 20 20 20 19 19 20 21 20 21 21 21 21 21 22 22 23 25 25 27 28
13 14 15 15 15 16 16 16 17 19 19 19 19 19 19 19 19 19 19 19 20 19 19 19 19 19 18 19 19 20 20 20 20 20 20 20 20 21 22 23 23 25 26 27
12 14 13 13 14 14 14 15 15 17 17 17 17 18 18 18 18 18 18 19 20 19 18 19 19 19 19 19 20 21 20 20 20 20 19 19 19 21 22 22 23 24 25 26
11 11 12 12 13 12 13 14 15 15 13 15 15 15 18 18 19 18 19 19 19 19 19 19 19 19 20 21 21 21 21 21 20 20 20 20 20 21 22 23 23 23 24 26
11 11 11 12 12 12 13 13 14 14 13 14 14 15 17 18 18 18 18 19 19 19 19 20 20 20 21 22 22 21 21 21 20 20 20 21 21 21 22 22 22 23 23 24
11 11 12 12 13 13 13 13 13 13 12 13 14 14 16 18 17 17 18 18 18 19 19 20 20 21 21 21 21 22 22 21 21 21 21 21 21 22 23 23 23 23 24 24
10 11 12 12 13 13 13 11 11 12 13 14 15 14 15 16 16 17 17 17 18 19 20 20 20 21 21 21 21 21 21 20 20 21 21 22 22 23 24 24 24 24 24 25
10 12 13 13 13 13 13 13 12 12 13 13 16 16 16 15 16 17 17 18 19 19 20 21 22 22 23 23 22 22 21 22 22 22 22 23 24 25 25 25 26 26 26 27
11 13 12 13 13 13 14 14 13 13 13 13 15 16 16 16 16 16 17 18 19 20 21 22 22 23 23 24 24 24 24 24 24 24 25 26 27 27 27 27 28 28 28 28
12 11 12 12 13 14 15 14 14 12 13 13 13 14 15 15 15 15 17 17 19 20 21 22 23 24 24 24 24 25 25 26 26 26 27 27 28 28 28 28 29 29 30 30
12 12 12 13 14 14 15 15 15 14 14 13 13 14 15 15 15 16 17 18 20 21 22 23 23 24 25 25 25 25 26 26 27 27 27 27 27 28 29 29 29 29 30 30
13 13 14 14 14 14 15 15 14 14 14 14 14 15 16 15 16 16 17 19 20 21 22 22 24 24 25 26 26 26 26 26 27 27 27 27 28 28 29 29 29 29 30 30
13 14 14 14 14 14 15 15 15 14 14 14 14 16 16 16 16 17 18 19 20 22 22 23 24 24 25 25 25 25 26 27 27 27 27 27 27 27 28 28 29 29 28 28
13 14 14 15 15 14 14 15 15 15 14 15 15 15 16 16 17 18 19 19 20 21 22 23 23 24 24 25 25 26 26 27 26 26 26 27 27 28 27 27 27 27 26 26
13 14 15 15 15 14 15 15 16 16 15 15 14 16 16 17 17 18 19 19 20 21 22 23 24 25 25 26 26 26 26 27 26 27 27 27 27 27 26 26 26 25 25 25
12 13 13 14 14 14 15 16 16 16 16 15 15 16 17 17 18 19 19 20 21 22 23 24 24 25 25 25 26 26 26 25 25 26 26 26 26 26 25 24 24 24 24 24
10 11 11 11 12 13 14 14 15 15 15 16 16 17 18 18 19 19 20 21 22 23 23 23 24 25 25 25 25 25 25 25 25 25 25 25 25 24 23 22 22 22 22 21
8 9 9 9 10 11 11 12 13 15 15 15 16 17 18 19 19 20 20 21 21 22 22 23 23 24 24 24 24 23 23 23 23 23 23 23 22 21 20 20 19 20 20 19
4 6 6 6 7 9 9 10 11 13 14 15 16 16 17 19 20 20 20 20 20 21 21 21 21 22 22 22 21 21 22 21 21 21 21 20 20 19 18 17 17 17 17 17
2 3 4 5 6 7 8 8 9 11 12 14 15 16 17 18 19 19 18 18 18 18 19 20 20 20 20 19 19 19 19 18 19 18 18 18 17 17 16 16 15 15 14 14
1 1 1 2 3 4 6 7 8 9 11 13 14 15 16 16 17 16 16 16 17 17 17 18 18 17 17 17 17 17 16 16 16 16 16 15 15 14 14 14 14 13 12 12
2 1 0 0 2 4 5 6 7 9 11 12 14 14 15 15 15 14 15 15 15 16 15 15 15 16 16 16 15 15 15 14 14 13 13 12 12 12 11 10 10 10 10 9
2 1 1 1 2 4 5 7 8 9 10 11 12 12 13 13 13 13 13 13 13 14 14 14 14 14 14 14 13 13 12 11 11 10 9 9 9 8 8 7 7 7 6 6
3 2 2 2 3 5 6 8 9 9 10 10 11 11 12 12 11 11 12 11 11 11 12 12 12 12 12 12 11 11 9 8 7 7 6 6 5 5 5 4 5 5 5 6
3 3 3 4 5 6 7 8 9 9 9 9 10 11 11 11 11 10 10 10 10 10 10 10 9 9 8 8 7 6 4 3 3 3 3 3 2 2 3 3 3 4 5 6
3 4 4 5 6 6 8 9 9 10 9 10 10 11 11 11 10 10 10 9 8 8 8 7 7 6 5 5 4 2 2 2 1 1 1 1 2 3 3 4 4 5 5 6

GEFSCGP_500_meanwind_132.txt.gz
Wind_Speed
11 12 12 13 13 12 12 13 14 16 18 18 16 17 20 23 23 22 19 20 22 23 21 20 19 20 22 22 22 24 24 23 23 24 24 24 24 24 24 24 24 24 24 25
10 11 12 13 14 14 14 15 15 17 18 18 16 18 19 22 22 22 21 22 22 22 21 21 21 21 21 22 23 24 24 24 25 24 25 25 25 25 25 25 24 23 23 23
10 12 14 16 17 15 15 16 17 17 19 18 17 19 21 22 23 22 20 22 24 23 22 21 20 21 22 23 23 23 24 25 25 25 25 25 25 25 25 24 23 23 23 23
12 14 15 16 16 17 16 16 17 16 17 18 18 19 22 23 22 22 21 22 24 23 22 21 21 20 21 21 22 22 24 24 25 25 26 25 25 25 24 24 23 23 23 24
12 14 15 15 15 16 15 16 17 17 17 18 18 19 21 23 24 24 24 24 23 22 23 22 21 20 21 21 22 23 24 24 24 25 25 25 25 24 23 24 24 23 23 24
12 13 14 14 15 16 16 16 16 17 17 20 19 20 23 25 25 25 24 22 21 21 22 22 22 22 22 23 24 24 24 24 25 25 25 25 25 25 24 24 24 23 23 24
12 14 14 14 14 15 15 15 15 17 19 21 19 21 24 24 25 23 21 21 20 19 21 22 22 22 23 24 24 24 25 26 26 25 25 26 26 25 25 25 25 24 23 24
12 13 14 14 14 15 15 16 16 18 19 19 18 21 24 23 24 22 21 21 20 20 21 22 23 22 22 24 25 26 27 28 28 28 27 26 26 26 26 26 26 25 24 24
12 14 13 14 15 14 15 16 16 18 18 18 19 22 23 22 21 20 21 21 21 22 23 23 23 23 23 24 25 26 27 28 28 27 26 26 27 27 26 26 26 25 25 25
13 14 14 13 14 15 16 16 17 18 17 17 18 21 21 21 19 19 20 21 21 22 23 23 24 25 25 25 25 26 27 27 27 27 27 27 27 27 27 27 26 26 25 24
13 13 13 13 14 15 16 16 17 18 18 18 19 20 20 19 19 18 20 21 21 22 24 24 25 25 25 25 26 26 27 27 27 27 27 27 27 27 27 26 25 25 25 25
13 13 13 13 14 15 18 18 18 20 20 19 21 22 21 20 19 19 20 22 22 23 24 25 25 25 25 26 27 27 27 27 27 27 27 27 27 27 27 26 26 26 26 25
15 15 14 13 14 15 17 18 18 20 21 21 22 21 20 20 20 20 21 23 24 24 25 25 25 25 26 27 27 28 28 28 28 28 27 27 27 27 26 26 26 26 25 26
15 16 16 15 14 14 16 17 18 19 22 22 22 22 22 21 22 23 23 23 23 24 25 26 26 26 27 27 28 28 28 28 28 28 28 27 27 26 27 27 26 25 25 25
14 14 15 15 15 15 16 16 17 19 21 21 21 22 23 22 23 24 24 25 24 24 25 26 25 26 26 27 28 28 28 28 28 28 27 27 26 26 26 26 25 25 24 24
12 13 14 13 13 14 15 15 16 18 19 20 20 21 23 24 24 24 23 24 24 23 23 24 25 25 25 26 27 27 27 28 27 27 27 26 25 25 25 25 24 24 23 23
11 11 12 10 11 12 12 13 14 16 19 21 22 22 22 23 24 23 23 24 24 24 24 23 24 24 25 27 26 26 27 27 27 27 26 26 25 25 25 25 24 24 23 23
8 8 7 7 8 10 10 12 14 14 16 19 21 22 22 22 23 23 23 23 23 23 23 24 24 24 25 25 25 25 25 25 25 24 25 25 25 24 24 23 23 23 22 21
5 5 6 7 7 8 8 10 12 14 16 18 19 20 21 21 21 23 23 23 22 22 22 22 23 23 24 24 24 24 24 23 22 22 21 22 22 22 21 21 20 19 19 19
4 5 6 7 7 9 9 10 11 13 15 16 18 18 19 21 21 21 21 21 22 21 21 20 21 21 22 22 23 22 21 20 20 20 20 19 18 18 18 17 16 16 16 16
4 5 6 6 7 8 9 10 12 13 14 15 16 17 17 18 19 19 19 19 19 20 19 19 19 19 20 21 21 21 20 19 19 18 18 17 16 16 15 14 14 13 13 14
4 5 6 6 7 8 9 10 11 13 14 15 15 16 17 17 17 17 17 17 17 17 17 18 17 18 18 18 18 17 17 17 16 15 15 14 14 13 12 12 11 11 11 11
4 4 5 6 7 8 9 11 11 12 13 14 14 15 15 16 16 15 14 15 15 16 16 16 16 16 16 16 15 14 14 14 14 14 13 12 11 10 10 9 9 9 8 8
4 5 6 7 8 9 10 11 11 12 13 13 13 13 14 15 14 14 14 14 14 14 14 14 14 15 14 13 12 12 12 12 11 11 11 10 9 8 8 8 8 7 6 5
4 5 6 7 8 9 10 11 12 12 13 13 13 13 13 13 12 12 12 12 12 12 11 11 11 12 11 11 10 10 10 10 10 9 9 8 7 6 5 5 4 4 4 3
5 5 6 7 8 8 9 10 11 12 12 12 12 12 12 12 11 10 10 10 10 10 9 9 9 9 9 8 8 8 8 8 7 7 6 5 4 3 2 2 2 1 0 0

GEFSCGP_500_meanwind_138.txt.gz
Wind_Speed
13 15 14 14 15 15 16 16 15 15 14 16 17 17 17 16 16 17 17 17 18 19 19 19 18 16 18 18 18 19 20 20 19 21 22 22 22 21 21 22 22 22 21 21
12 13 13 15 15 15 16 16 15 15 15 17 17 18 17 18 19 19 19 19 20 20 19 19 19 19 18 19 20 19 20 20 21 21 22 22 22 21 21 21 21 20 20 20
12 12 13 14 14 15 16 17 16 15 15 17 18 19 19 20 21 22 22 22 22 21 20 19 18 19 19 20 20 20 21 21 21 22 22 22 22 22 21 20 20 20 20 20
11 12 13 14 15 16 16 17 17 16 17 18 20 21 21 22 24 25 24 24 22 22 18 18 19 20 19 20 21 21 21 21 22 22 23 23 22 22 22 21 21 20 20 20
12 13 14 15 16 16 17 18 19 19 19 20 21 24 24 24 25 26 25 24 23 22 20 19 19 20 20 21 21 22 21 22 22 23 23 23 23 23 23 23 23 21 21 22
12 13 15 15 16 17 18 19 20 21 22 23 22 24 25 24 24 26 24 24 24 23 21 20 20 20 19 20 21 21 22 22 23 23 24 24 25 25 25 24 23 23 23 22
12 13 14 14 15 17 19 20 21 22 23 24 23 25 25 24 25 27 26 27 26 25 23 22 21 20 19 19 20 21 21 23 24 24 26 26 26 25 25 24 24 23 23 21
12 13 13 15 16 17 19 20 22 23 23 23 23 25 24 24 24 25 27 26 25 25 24 23 22 21 20 20 20 21 22 23 25 25 26 26 26 26 25 25 24 24 23 22
12 12 14 16 17 18 18 19 21 23 23 23 21 21 22 23 23 22 24 24 25 24 24 24 24 22 22 21 21 22 23 24 25 25 26 27 26 26 25 25 25 24 24 23
14 14 14 16 17 18 20 20 20 22 23 23 22 21 22 21 21 21 22 23 22 23 24 24 23 22 22 21 22 22 23 24 25 26 26 26 25 25 24 24 24 24 24 23
16 15 15 16 17 17 18 20 21 22 22 23 23 22 22 21 20 20 20 21 21 20 21 22 22 22 21 21 21 23 24 24 25 26 26 25 25 24 24 24 24 24 23 22
14 14 14 14 15 17 19 20 21 22 22 22 23 22 20 20 19 19 19 20 21 20 19 18 20 21 22 22 22 23 23 24 25 25 25 25 25 25 25 24 24 24 23 22
14 14 15 14 14 15 17 19 21 22 23 23 23 22 20 20 20 19 19 20 20 19 19 20 21 22 22 22 23 23 23 24 24 24 24 24 25 25 24 24 24 23 23 22
14 14 14 13 12 14 16 17 18 20 22 22 22 21 20 21 20 20 19 20 21 21 19 19 20 21 21 21 22 22 23 23 24 24 24 24 24 24 23 23 23 22 22 21
13 13 13 12 13 13 14 15 16 17 20 20 20 19 19 20 20 20 21 21 20 19 20 19 19 20 21 22 22 23 23 24 24 25 25 25 24 23 23 23 22 21 20 20
12 12 12 12 11 11 11 12 13 15 17 18 18 18 19 20 20 21 22 23 22 21 21 20 20 21 21 21 22 22 23 23 23 23 23 23 23 22 22 21 21 21 21 21
12 12 12 11 11 10 11 11 12 13 15 16 17 17 18 19 20 20 21 21 20 20 20 20 20 20 20 21 22 21 21 21 21 22 21 22 22 21 20 21 21 21 20 20
11 12 11 11 11 10 10 11 11 11 12 13 14 15 16 18 19 19 20 21 20 20 20 19 19 20 20 21 20 19 19 19 19 19 20 20 20 19 19 19 19 19 19 19
10 10 10 11 10 9 9 10 10 11 11 12 13 14 15 16 17 18 19 19 18 19 18 18 18 18 19 19 19 19 18 18 18 18 18 18 18 17 17 17 16 16 17 17
10 9 9 10 9 9 9 10 10 11 11 12 12 13 14 15 16 16 17 17 17 17 17 17 16 16 17 18 18 18 18 18 17 17 17 17 16 16 15 14 14 14 14 13
9 9 9 9 9 9 10 10 11 12 12 12 13 14 14 14 15 16 17 17 16 15 15 14 14 15 15 16 16 16 16 16 15 14 14 14 13 13 12 12 13 12 11 10
7 8 8 9 10 9 9 10 11 12 13 13 13 14 14 14 15 15 15 15 13 12 12 12 13 13 14 14 15 15 15 14 13 12 12 11 11 11 10 11 10 10 9 8
6 6 7 8 9 9 10 11 12 12 13 13 13 14 14 14 14 14 13 12 11 10 10 11 12 12 12 12 13 13 13 12 11 11 10 9 9 9 9 8 8 7 7 7
5 6 6 7 8 9 10 11 12 12 13 13 13 13 13 13 13 12 11 11 10 9 9 10 10 11 11 10 11 11 10 10 9 9 9 8 8 8 7 6 5 5 6 6
6 6 6 7 8 9 10 10 11 12 12 12 12 12 12 12 11 11 10 10 9 9 9 9 9 9 9 9 9 9 9 9 8 7 7 6 6 5 5 4 3 3 4 4
6 6 6 7 8 9 9 9 10 11 12 12 12 12 12 11 11 10 9 9 8 8 8 8 8 8 8 8 8 9 8 7 7 6 5 5 5 4 3 3 3 3 2 1

GEFSCGP_500_meanwind_144.txt.gz
Wind_Speed
15 16 17 18 20 21 21 22 23 24 25 26 27 27 26 26 26 25 24 23 22 20 20 20 20 21 20 18 18 18 19 20 19 19 20 21 21 22 23 23 24 25 24 24
14 16 18 19 20 20 20 21 22 22 24 26 27 27 27 27 26 25 24 23 21 21 21 20 21 20 20 20 19 19 19 19 19 20 21 22 22 22 24 24 24 24 24 23
14 16 18 19 20 21 21 21 21 22 24 26 27 27 26 26 25 24 23 22 21 22 22 22 21 21 21 20 19 19 20 20 21 21 21 22 22 23 24 24 24 24 23 23
15 16 17 18 19 20 20 21 22 22 23 24 26 27 25 25 24 23 23 22 22 22 23 22 22 23 22 21 21 20 20 21 21 22 22 23 23 23 24 24 23 24 24 24
15 16 16 17 18 20 20 21 22 22 23 24 24 27 25 24 24 24 23 23 23 24 24 23 23 23 22 21 21 21 21 21 22 23 23 23 24 24 25 24 24 24 24 24
15 16 16 17 18 19 20 22 22 23 24 25 24 26 24 23 23 23 23 23 23 25 25 24 24 24 23 23 24 23 23 23 23 24 24 24 25 26 25 25 26 26 26 26
14 15 16 17 18 19 20 21 23 24 24 24 24 26 24 23 24 23 23 23 23 23 23 24 24 25 24 25 25 25 26 25 23 23 23 24 25 26 26 26 27 27 28 28
13 13 15 17 18 19 21 21 23 25 25 24 25 26 25 24 25 24 24 24 24 23 22 23 25 24 25 26 26 25 25 25 25 24 24 25 25 26 26 27 28 28 27 27
14 14 15 17 18 19 20 21 23 25 26 26 26 26 25 25 25 24 25 24 25 23 23 23 24 24 25 25 26 26 25 25 26 25 25 25 25 26 26 27 28 28 28 27
15 15 15 17 19 19 20 20 22 24 26 27 25 24 24 23 24 24 24 24 24 23 23 22 23 24 24 24 25 25 25 25 25 25 25 25 25 25 26 27 28 28 28 27
16 16 16 17 18 19 19 20 20 22 23 24 24 22 21 22 22 22 23 22 22 22 22 22 22 22 22 23 25 24 24 24 24 25 25 25 25 25 26 27 27 27 27 27
16 16 16 17 17 18 19 19 19 20 20 21 23 21 19 22 22 21 21 21 21 22 21 21 21 21 22 23 23 23 23 23 23 24 24 25 25 25 26 26 27 26 26 26
16 17 17 16 17 18 18 18 18 19 19 20 21 20 20 21 21 21 21 21 21 21 21 21 22 22 22 23 22 21 22 22 23 24 24 25 26 26 26 26 26 25 25 25
17 17 17 17 17 17 16 16 17 18 19 20 20 19 19 20 20 21 21 21 20 21 21 22 23 22 22 22 22 21 21 22 23 24 24 25 25 25 25 25 25 24 23 23
18 18 18 17 17 16 16 16 16 17 18 19 19 19 19 19 19 19 19 20 19 20 20 20 21 21 21 21 20 21 22 22 22 23 24 23 23 23 23 23 24 23 23 22
18 18 17 17 17 17 17 16 17 18 18 18 19 19 19 18 18 17 18 18 19 20 19 19 19 19 20 20 20 21 22 22 22 22 23 23 23 23 23 23 23 22 22 21
17 18 17 17 17 17 17 16 17 17 17 18 19 18 17 17 17 17 17 17 18 18 18 18 18 19 20 20 21 21 22 22 21 21 22 21 21 22 22 22 21 21 20 20
17 17 17 17 17 18 16 15 15 16 16 16 17 17 16 15 15 16 16 16 16 17 17 18 19 19 19 20 20 20 21 21 20 19 19 19 19 19 20 19 19 20 20 20
17 16 17 16 16 16 15 14 14 15 15 16 16 15 15 14 14 15 15 15 15 16 16 17 17 17 17 17 17 18 18 18 18 18 17 17 18 17 17 18 18 18 18 18
15 15 15 15 16 15 14 14 15 15 15 15 14 14 13 13 14 14 15 15 15 15 15 16 16 15 15 16 16 17 17 17 17 17 17 16 16 15 15 15 16 16 16 17
14 14 14 14 15 14 14 14 14 14 14 14 14 14 14 14 14 14 14 14 14 14 14 13 13 14 14 15 15 15 15 15 15 15 15 15 14 14 14 14 14 14 14 14
14 14 13 13 13 13 13 13 13 14 14 14 14 13 13 14 14 13 13 13 12 11 11 12 13 13 13 13 13 12 12 12 12 12 13 12 12 12 12 11 11 12 11 11
13 12 11 11 11 12 12 12 12 13 13 14 13 13 13 13 12 12 11 10 9 9 9 10 11 11 11 10 10 10 10 9 9 10 9 9 10 9 10 9 10 10 9 9
12 11 11 11 11 11 11 11 11 12 12 12 12 12 12 11 10 10 8 8 7 7 8 8 9 9 9 8 8 9 8 8 8 8 8 8 8 8 8 8 8 8 8 8
12 11 10 10 10 10 11 11 10 10 11 11 11 11 11 10 9 8 7 7 6 7 7 8 8 8 8 7 8 7 8 8 7 7 7 8 8 7 7 7 7 7 7 6
12 11 10 9 9 9 9 9 9 10 10 11 11 11 10 8 7 7 6 6 6 6 6 7 7 7 6 6 7 7 7 7 7 6 6 7 7 7 7 7 7 6 6 5

GEFSCGP_500_meanwind_150.txt.gz
Wind_Speed
11 13 14 16 16 18 19 19 20 22 23 23 24 25 25 26 26 26 26 26 26 26 26 25 25 25 25 25 26 25 25 25 26 26 26 25 24 23 23 24 24 24 25 25
11 13 14 15 16 17 17 18 19 21 22 23 24 25 25 26 25 25 25 26 26 26 26 26 26 26 25 25 25 26 25 25 25 25 25 24 24 23 23 24 24 24 24 24
12 13 14 14 15 16 17 17 18 20 21 22 23 23 24 25 25 25 25 25 26 26 27 26 26 26 26 26 26 25 26 25 25 25 26 24 23 24 24 24 24 25 25 25
11 13 14 15 16 17 17 18 19 20 20 21 22 22 22 24 25 25 25 25 24 25 25 25 25 25 26 26 26 25 24 25 25 26 24 24 25 26 25 25 25 25 26 26
12 13 14 15 16 17 17 18 18 19 20 21 22 23 23 25 24 24 24 24 24 24 24 24 25 26 26 26 26 26 25 25 25 25 25 25 26 26 26 26 26 26 27 27
12 14 15 16 16 17 17 17 18 19 19 20 21 22 22 23 23 24 24 24 24 24 24 25 25 26 26 27 26 25 25 25 25 25 27 27 27 27 27 27 27 28 28 28
13 14 15 15 15 16 16 17 17 18 18 19 21 21 21 23 23 23 24 24 24 25 25 24 25 26 26 27 26 26 26 26 26 26 26 27 28 28 28 27 27 28 29 29
13 14 15 15 15 16 16 17 17 18 17 18 20 21 21 22 22 22 22 23 24 24 23 23 24 25 24 25 25 25 26 27 26 26 26 27 28 28 27 28 28 29 28 28
14 15 16 16 17 17 18 18 18 19 20 20 19 21 22 21 21 21 21 22 22 22 21 22 22 23 23 24 25 25 26 27 27 27 27 28 28 27 27 28 28 28 28 28
15 16 17 17 18 18 18 18 19 18 19 19 19 20 20 20 19 19 19 20 21 20 21 21 22 23 24 25 26 27 26 27 27 27 27 27 27 27 26 26 27 28 28 28
16 17 17 18 18 18 19 18 18 18 18 18 19 19 20 20 19 18 19 19 19 20 21 21 22 23 24 25 26 26 26 27 27 27 27 27 26 27 27 27 27 27 27 27
17 17 18 18 18 18 19 19 18 18 19 19 19 20 20 19 19 18 19 18 18 18 19 20 21 22 23 24 25 26 27 27 28 28 28 28 27 27 26 26 26 26 26 26
17 18 18 18 18 18 18 18 18 18 19 19 19 20 19 18 18 18 18 18 18 18 18 19 19 20 21 23 24 25 26 27 27 27 26 25 25 25 24 24 25 25 25 25
18 18 18 18 18 19 19 19 19 19 19 18 18 18 18 17 18 18 18 18 17 17 17 18 18 19 20 21 22 23 24 23 24 23 23 24 24 24 24 24 24 24 24 23
20 19 19 19 19 20 19 19 19 19 18 18 17 18 18 17 18 18 17 17 16 16 17 17 18 19 19 19 20 21 20 21 20 21 21 22 22 23 24 24 24 24 23 23
20 20 20 20 20 20 19 19 18 18 17 17 17 18 18 18 17 17 17 17 17 17 17 17 18 18 18 18 18 18 19 18 18 19 19 20 20 21 22 22 22 22 22 22
20 20 20 20 19 19 19 18 18 17 17 17 17 17 17 17 16 16 16 17 17 18 17 17 18 17 17 17 17 16 16 17 17 17 18 18 18 19 19 20 20 20 21 21
20 20 20 19 19 19 18 18 17 17 17 17 17 16 16 17 17 17 16 17 17 17 17 17 16 15 15 15 15 15 15 15 15 16 17 17 17 17 17 18 18 19 19 20
20 20 19 18 19 19 18 17 17 17 16 16 16 16 16 16 17 16 16 16 16 16 16 15 14 14 14 14 14 14 14 14 15 16 16 16 16 16 16 17 16 17 17 17
20 19 19 19 19 19 18 16 16 16 15 15 15 15 15 15 16 16 16 15 15 14 14 14 14 13 13 13 13 13 13 13 13 14 14 14 13 14 14 15 15 14 14 14
20 19 19 18 18 18 16 15 15 15 15 14 15 15 16 16 16 16 15 14 13 13 12 12 12 12 12 12 12 12 12 12 12 12 12 12 12 12 12 13 13 12 12 12
21 20 18 18 17 16 15 14 14 14 14 14 14 15 15 16 15 14 13 12 11 11 11 11 11 11 11 11 10 10 9 9 9 9 10 10 10 11 11 11 11 11 10 10
20 19 18 17 16 15 14 14 14 14 13 13 13 14 15 15 13 12 11 10 10 10 10 10 10 9 9 9 9 8 7 7 8 8 8 9 9 10 10 10 10 10 9 9
21 19 18 17 15 14 13 13 13 13 12 12 12 13 13 12 11 10 9 10 10 9 9 9 8 8 8 8 9 7 7 7 7 7 7 7 7 8 8 8 8 8 8 8
21 20 19 17 15 14 13 12 12 12 12 11 12 11 11 10 9 8 8 9 9 9 8 8 7 7 7 8 7 6 6 6 6 6 7 7 7 8 8 8 8 7 7 7
21 20 19 16 15 13 12 11 10 10 10 10 10 9 9 8 7 7 7 7 7 6 6 5 5 6 6 5 5 5 6 6 6 6 6 6 7 7 7 7 7 7 7 6

GEFSCGP_500_meanwind_156.txt.gz
Wind_Speed
6 6 8 10 11 14 14 14 14 16 19 22 23 22 23 24 24 26 29 28 28 27 28 28 27 27 27 27 28 28 28 28 29 30 30 30 29 30 30 29 28 28 28 28
5 8 11 12 14 15 15 16 17 18 20 24 24 23 23 25 25 26 28 28 28 27 27 28 28 27 27 26 28 29 29 30 31 31 31 30 30 29 29 29 28 28 28 29
8 10 13 14 14 14 16 16 18 20 21 22 23 22 23 25 25 26 26 27 28 28 29 29 29 29 28 28 29 29 30 30 30 31 30 30 30 29 29 29 28 28 28 28
9 12 14 14 13 14 16 17 18 20 21 21 22 24 23 24 26 28 25 25 27 28 29 30 30 30 29 27 28 29 30 30 30 30 30 30 29 29 29 30 29 29 28 28
9 11 12 13 14 15 16 17 18 20 21 21 21 24 24 23 26 27 25 25 28 29 29 31 30 29 29 29 28 29 29 30 30 30 30 30 30 30 30 29 29 28 28 27
11 13 14 14 16 17 18 19 19 19 20 21 20 23 23 22 24 27 28 27 27 28 29 30 30 29 28 28 27 27 28 29 29 30 31 31 31 30 29 29 28 27 27 27
12 13 15 16 17 17 18 18 19 19 19 19 19 23 23 23 22 25 27 28 28 28 29 29 29 29 28 28 28 27 27 28 28 29 30 31 30 30 28 28 28 27 27 27
13 13 16 17 18 17 17 18 19 21 20 19 19 21 23 23 23 24 26 27 29 28 28 28 28 28 27 26 26 26 26 27 27 28 28 29 29 30 29 28 28 27 27 27
15 16 17 18 18 18 18 18 19 22 22 22 21 20 22 24 25 24 24 26 28 28 27 27 26 27 27 26 26 26 26 27 27 27 28 28 29 28 28 27 27 26 26 26
18 18 17 18 18 17 19 19 20 21 23 23 21 21 25 25 25 25 22 24 27 28 26 26 25 25 25 25 26 26 27 27 27 27 27 28 28 27 26 25 25 24 25 25
20 20 18 18 19 19 19 19 19 21 22 23 25 25 25 25 25 26 25 24 26 26 25 25 24 24 25 25 25 25 27 28 28 27 27 27 27 27 25 24 24 24 25 25
21 21 20 20 19 19 19 19 20 21 22 22 26 28 28 27 25 25 26 26 26 25 24 23 22 23 24 24 24 25 26 26 26 26 27 28 28 27 26 25 25 25 25 25
22 22 22 20 19 19 20 20 21 22 23 24 25 27 28 28 27 25 26 25 24 25 25 23 23 23 24 23 23 23 24 25 25 25 26 26 26 26 26 25 24 24 24 24
23 23 23 22 21 21 21 22 22 22 23 25 25 27 27 29 27 26 24 23 23 23 23 23 23 23 22 22 21 21 22 23 23 23 24 24 24 24 24 23 22 23 22 23
24 25 24 23 22 23 23 23 23 23 24 26 26 27 27 28 27 25 24 24 24 24 23 22 22 21 20 19 20 20 20 21 21 22 22 22 22 21 21 21 21 21 21 22
26 25 24 24 23 24 24 24 23 24 24 26 27 27 26 26 26 25 25 24 23 22 21 20 20 20 19 19 20 20 20 20 20 21 20 20 20 19 19 19 20 20 21 21
27 27 27 26 24 25 25 24 25 23 24 25 25 26 26 25 24 24 25 24 21 20 19 19 19 19 18 18 19 20 20 20 19 18 18 17 17 18 18 18 19 19 19 19
27 27 28 27 25 26 25 24 25 23 23 24 24 25 24 24 24 23 23 23 22 20 19 19 19 18 18 18 18 18 18 18 17 17 16 15 16 16 17 17 17 17 17 18
28 27 27 27 27 26 25 24 23 23 23 23 23 23 23 23 24 23 22 21 20 19 18 18 18 17 17 17 17 17 17 16 16 16 15 14 14 14 14 14 14 15 15 15
28 28 28 26 26 26 24 23 23 23 23 22 22 22 22 22 23 21 20 19 18 17 17 17 16 16 16 16 15 15 15 14 14 14 13 12 12 12 12 13 13 13 13 14
28 27 27 26 26 26 23 23 23 23 23 23 22 22 22 22 22 20 19 17 16 15 15 15 15 15 14 14 14 14 14 13 13 13 12 12 12 11 12 12 12 12 12 12
27 27 27 26 26 24 23 24 23 21 21 22 21 21 21 20 20 17 16 15 14 13 14 13 13 13 13 12 12 12 12 12 12 12 11 11 11 10 11 11 11 11 11 12
27 27 27 26 25 25 24 23 22 21 21 20 20 20 19 19 17 15 14 14 13 13 12 12 12 12 11 11 11 11 11 10 10 11 10 9 9 9 9 10 10 10 11 11
27 27 27 26 26 25 24 21 20 20 20 18 18 18 17 16 15 14 13 12 12 12 11 11 11 11 11 11 10 10 10 10 10 10 8 8 8 8 9 9 10 10 10 11
27 28 27 26 26 25 23 20 19 20 19 18 17 16 16 15 13 13 12 11 10 10 10 10 10 10 10 10 9 8 8 8 8 8 7 8 8 8 9 10 11 11 11 12
27 27 26 25 24 24 22 19 18 18 17 17 16 15 14 13 12 11 10 10 10 9 8 8 9 9 9 8 7 7 7 8 8 8 7 8 9 9 10 10 11 12 12 12